Time,TemperatureF,DewpointF,PressureIn,WindDirection,WindDirectionDegrees,WindSpeedMPH,WindSpeedGustMPH,Humidity,HourlyPrecipIn,Conditions,Clouds,dailyrainin,SoftwareType,DateUTC
2013-12-22 00:00:00,33.5,31.1,29.35,NE,34,5.7,10.3,91,0.00,,,0.00,WUHU216HW,2013-12-22 05:00:00,
2013-12-22 00:01:00,33.5,31.1,29.35,NNE,32,5.5,10.3,91,0.00,,,0.00,WUHU216HW,2013-12-22 05:01:00,
2013-12-22 00:06:00,33.5,31.1,29.36,NE,37,5.0,11.6,91,0.00,,,0.00,WUHU216HW,2013-12-22 05:06:00,
2013-12-22 00:07:00,33.5,31.1,29.36,ENE,68,6.7,11.6,91,0.00,,,0.00,WUHU216HW,2013-12-22 05:07:00,
2013-12-22 00:11:00,33.5,31.1,29.36,NNE,29,7.0,11.6,91,0.00,,,0.00,WUHU216HW,2013-12-22 05:11:00,
2013-12-22 00:12:00,33.5,31.1,29.36,NNE,24,5.4,10.1,91,0.00,,,0.00,WUHU216HW,2013-12-22 05:12:00,
2013-12-22 00:13:00,33.5,31.1,29.36,NE,45,7.4,9.2,91,0.00,,,0.00,WUHU216HW,2013-12-22 05:13:00,
2013-12-22 00:16:00,33.5,31.1,29.37,ENE,68,5.1,11.2,91,0.00,,,0.00,WUHU216HW,2013-12-22 05:16:00,
2013-12-22 00:17:00,33.5,31.1,29.37,ENE,68,7.6,11.2,91,0.00,,,0.00,WUHU216HW,2013-12-22 05:17:00,
2013-12-22 00:18:00,33.5,31.1,29.36,NE,45,6.7,11.2,91,0.00,,,0.00,WUHU216HW,2013-12-22 05:18:00,
2013-12-22 00:21:00,33.5,31.1,29.35,NE,45,6.7,11.2,91,0.00,,,0.00,WUHU216HW,2013-12-22 05:21:00,
2013-12-22 00:22:00,33.5,31.1,29.35,NE,45,6.3,11.2,91,0.00,,,0.00,WUHU216HW,2013-12-22 05:22:00,
2013-12-22 00:23:00,33.5,31.1,29.35,NE,49,4.8,11.2,91,0.00,,,0.00,WUHU216HW,2013-12-22 05:23:00,
2013-12-22 00:26:00,33.5,31.1,29.35,NNE,29,5.5,7.6,91,0.00,,,0.00,WUHU216HW,2013-12-22 05:26:00,
2013-12-22 00:27:00,33.5,31.1,29.35,NE,45,5.4,7.6,91,0.00,,,0.00,WUHU216HW,2013-12-22 05:27:00,
2013-12-22 00:28:00,33.5,31.1,29.35,NE,45,4.9,7.6,91,0.00,,,0.00,WUHU216HW,2013-12-22 05:28:00,
2013-12-22 00:31:00,33.5,31.1,29.35,NE,35,5.0,8.5,91,0.00,,,0.00,WUHU216HW,2013-12-22 05:31:00,
2013-12-22 00:32:00,33.5,31.1,29.34,NNE,23,6.5,8.5,91,0.00,,,0.00,WUHU216HW,2013-12-22 05:32:00,
2013-12-22 00:33:00,33.5,31.1,29.34,NE,45,8.5,8.5,91,0.00,,,0.00,WUHU216HW,2013-12-22 05:33:00,
2013-12-22 00:36:00,33.5,31.1,29.33,NNE,23,12.3,12.3,91,0.00,,,0.00,WUHU216HW,2013-12-22 05:36:00,
2013-12-22 00:37:00,33.5,31.1,29.33,NNE,23,8.6,12.3,91,0.00,,,0.00,WUHU216HW,2013-12-22 05:37:00,
2013-12-22 00:38:00,33.5,31.1,29.33,NNE,31,8.1,12.3,91,0.00,,,0.00,WUHU216HW,2013-12-22 05:38:00,
2013-12-22 00:39:00,33.5,31.1,29.33,NE,45,7.8,12.3,91,0.00,,,0.00,WUHU216HW,2013-12-22 05:39:00,
2013-12-22 00:41:00,33.5,31.1,29.33,NE,36,8.0,12.3,91,0.00,,,0.00,WUHU216HW,2013-12-22 05:41:00,
2013-12-22 00:42:00,33.5,31.1,29.34,NNE,30,7.0,12.3,91,0.00,,,0.00,WUHU216HW,2013-12-22 05:42:00,
2013-12-22 00:43:00,33.5,31.1,29.34,NNE,26,4.9,12.3,91,0.00,,,0.00,WUHU216HW,2013-12-22 05:43:00,
2013-12-22 00:44:00,33.5,31.1,29.35,NNE,23,4.9,12.3,91,0.00,,,0.00,WUHU216HW,2013-12-22 05:44:00,
2013-12-22 00:46:00,33.5,31.1,29.35,North,10,3.5,10.1,91,0.00,,,0.00,WUHU216HW,2013-12-22 05:46:00,
2013-12-22 00:47:00,33.5,31.1,29.35,NE,45,3.4,10.1,91,0.00,,,0.00,WUHU216HW,2013-12-22 05:47:00,
2013-12-22 00:48:00,33.5,31.1,29.35,NNE,31,4.5,10.1,91,0.00,,,0.00,WUHU216HW,2013-12-22 05:48:00,
2013-12-22 00:49:00,33.5,31.1,29.35,NE,39,4.9,10.1,91,0.00,,,0.00,WUHU216HW,2013-12-22 05:49:00,
2013-12-22 00:50:00,33.5,31.1,29.35,NNE,23,6.7,9.2,91,0.00,,,0.00,WUHU216HW,2013-12-22 05:50:00,
2013-12-22 00:51:00,33.5,31.1,29.34,NE,36,6.0,8.3,91,0.00,,,0.00,WUHU216HW,2013-12-22 05:51:00,
2013-12-22 00:52:00,33.5,31.1,29.33,ENE,66,5.3,8.3,91,0.00,,,0.00,WUHU216HW,2013-12-22 05:52:00,
2013-12-22 00:53:00,33.5,31.1,29.33,East,82,4.5,8.3,91,0.00,,,0.00,WUHU216HW,2013-12-22 05:53:00,
2013-12-22 00:54:00,33.5,31.1,29.33,NE,45,6.3,8.3,91,0.00,,,0.00,WUHU216HW,2013-12-22 05:54:00,
2013-12-22 00:55:00,33.5,31.1,29.33,NE,45,6.3,8.3,91,0.00,,,0.00,WUHU216HW,2013-12-22 05:55:00,
2013-12-22 00:57:00,33.5,31.1,29.33,ENE,60,4.2,8.3,91,0.00,,,0.00,WUHU216HW,2013-12-22 05:57:00,
2013-12-22 00:59:00,33.5,31.1,29.31,East,90,6.7,7.6,91,0.00,,,0.00,WUHU216HW,2013-12-22 05:59:00,
2013-12-22 01:00:00,33.7,31.2,29.30,East,90,6.7,7.6,91,0.00,,,0.00,WUHU216HW,2013-12-22 06:00:00,
2013-12-22 01:02:00,33.5,31.1,29.25,ESE,113,8.7,9.4,91,0.00,,,0.00,WUHU216HW,2013-12-22 06:02:00,
2013-12-22 01:03:00,33.5,31.1,29.25,East,90,7.6,9.4,91,0.00,,,0.00,WUHU216HW,2013-12-22 06:03:00,
2013-12-22 01:04:00,33.5,31.1,29.25,East,93,6.0,9.4,91,0.00,,,0.00,WUHU216HW,2013-12-22 06:04:00,
2013-12-22 01:05:00,33.5,31.1,29.25,East,96,5.2,9.4,91,0.00,,,0.00,WUHU216HW,2013-12-22 06:05:00,
2013-12-22 01:06:00,33.5,31.1,29.25,East,90,4.4,9.4,91,0.00,,,0.00,WUHU216HW,2013-12-22 06:06:00,
2013-12-22 01:07:00,33.5,31.1,29.26,North,0,4.7,9.4,91,0.00,,,0.00,WUHU216HW,2013-12-22 06:07:00,
2013-12-22 01:08:00,33.5,31.1,29.28,NNE,23,5.6,9.4,91,0.00,,,0.00,WUHU216HW,2013-12-22 06:08:00,
2013-12-22 01:09:00,33.5,31.1,29.30,North,0,7.6,9.4,91,0.00,,,0.00,WUHU216HW,2013-12-22 06:09:00,
2013-12-22 01:10:00,33.5,31.1,29.32,NNE,12,6.7,10.7,91,0.00,,,0.00,WUHU216HW,2013-12-22 06:10:00,
2013-12-22 01:11:00,33.5,31.1,29.33,North,4,5.9,10.7,91,0.00,,,0.00,WUHU216HW,2013-12-22 06:11:00,
2013-12-22 01:12:00,33.5,31.3,29.34,North,0,6.0,10.7,92,0.00,,,0.00,WUHU216HW,2013-12-22 06:12:00,
2013-12-22 01:13:00,33.7,31.2,29.35,North,357,5.1,10.7,91,0.00,,,0.00,WUHU216HW,2013-12-22 06:13:00,
2013-12-22 01:14:00,33.7,31.5,29.35,NNW,338,4.7,10.7,92,0.00,,,0.00,WUHU216HW,2013-12-22 06:14:00,
2013-12-22 01:15:00,33.7,31.5,29.35,NNW,338,4.7,10.7,92,0.00,,,0.00,WUHU216HW,2013-12-22 06:15:00,
2013-12-22 01:16:00,33.7,31.5,29.36,North,352,4.9,10.7,92,0.00,,,0.00,WUHU216HW,2013-12-22 06:16:00,
2013-12-22 01:17:00,33.7,31.5,29.36,North,359,5.2,10.7,92,0.00,,,0.00,WUHU216HW,2013-12-22 06:17:00,
2013-12-22 01:19:00,33.7,31.5,29.36,NW,315,5.6,10.7,92,0.00,,,0.00,WUHU216HW,2013-12-22 06:19:00,
2013-12-22 01:21:00,33.7,31.5,29.37,North,0,8.1,9.8,92,0.00,,,0.00,WUHU216HW,2013-12-22 06:21:00,
2013-12-22 01:22:00,33.7,31.5,29.36,North,10,7.6,8.5,92,0.00,,,0.00,WUHU216HW,2013-12-22 06:22:00,
2013-12-22 01:24:00,33.7,31.5,29.36,ENE,68,5.8,8.5,92,0.00,,,0.00,WUHU216HW,2013-12-22 06:24:00,
2013-12-22 01:26:00,33.7,31.2,29.36,NNE,31,4.4,8.5,91,0.00,,,0.00,WUHU216HW,2013-12-22 06:26:00,
2013-12-22 01:27:00,33.7,31.5,29.36,NNE,18,2.8,8.5,92,0.00,,,0.00,WUHU216HW,2013-12-22 06:27:00,
2013-12-22 01:29:00,33.7,31.2,29.36,NNE,23,5.1,8.5,91,0.00,,,0.00,WUHU216HW,2013-12-22 06:29:00,
2013-12-22 01:31:00,33.8,31.4,29.35,NE,34,6.1,8.5,91,0.00,,,0.00,WUHU216HW,2013-12-22 06:31:00,
2013-12-22 01:32:00,33.8,31.4,29.35,NE,45,5.8,7.6,91,0.00,,,0.00,WUHU216HW,2013-12-22 06:32:00,
2013-12-22 01:34:00,33.8,31.4,29.35,NNE,31,3.0,7.6,91,0.00,,,0.00,WUHU216HW,2013-12-22 06:34:00,
2013-12-22 01:35:00,33.8,31.4,29.35,East,90,2.9,7.6,91,0.00,,,0.00,WUHU216HW,2013-12-22 06:35:00,
2013-12-22 01:36:00,33.8,31.4,29.35,NE,50,4.1,7.6,91,0.00,,,0.00,WUHU216HW,2013-12-22 06:36:00,
2013-12-22 01:37:00,33.8,31.4,29.34,NE,45,5.6,7.6,91,0.00,,,0.00,WUHU216HW,2013-12-22 06:37:00,
2013-12-22 01:38:00,33.8,31.4,29.34,NNW,338,5.8,7.6,91,0.00,,,0.00,WUHU216HW,2013-12-22 06:38:00,
2013-12-22 01:39:00,33.8,31.4,29.34,ESE,113,8.3,8.3,91,0.00,,,0.00,WUHU216HW,2013-12-22 06:39:00,
2013-12-22 01:40:00,33.8,31.4,29.33,ENE,60,5.8,8.3,91,0.00,,,0.00,WUHU216HW,2013-12-22 06:40:00,
2013-12-22 01:41:00,33.8,31.4,29.33,ENE,68,4.5,8.3,91,0.00,,,0.00,WUHU216HW,2013-12-22 06:41:00,
2013-12-22 01:42:00,33.8,31.4,29.33,ESE,113,4.3,8.3,91,0.00,,,0.00,WUHU216HW,2013-12-22 06:42:00,
2013-12-22 01:43:00,33.8,31.4,29.33,ENE,62,4.1,8.3,91,0.00,,,0.00,WUHU216HW,2013-12-22 06:43:00,
2013-12-22 01:44:00,33.8,31.4,29.33,NE,45,2.9,8.3,91,0.00,,,0.00,WUHU216HW,2013-12-22 06:44:00,
2013-12-22 01:46:00,33.8,31.4,29.33,NE,47,2.7,8.3,91,0.00,,,0.00,WUHU216HW,2013-12-22 06:46:00,
2013-12-22 01:47:00,33.8,31.4,29.33,NE,34,2.6,8.3,91,0.00,,,0.00,WUHU216HW,2013-12-22 06:47:00,
2013-12-22 01:48:00,33.8,31.4,29.33,NE,42,1.9,8.3,91,0.00,,,0.00,WUHU216HW,2013-12-22 06:48:00,
2013-12-22 01:51:00,33.8,31.4,29.33,ENE,58,1.5,5.8,91,0.00,,,0.00,WUHU216HW,2013-12-22 06:51:00,
2013-12-22 01:52:00,33.8,31.4,29.33,ENE,69,1.4,4.3,91,0.00,,,0.00,WUHU216HW,2013-12-22 06:52:00,
2013-12-22 01:53:00,33.8,31.4,29.33,East,90,1.1,4.0,91,0.00,,,0.00,WUHU216HW,2013-12-22 06:53:00,
2013-12-22 01:56:00,33.8,31.4,29.29,East,90,4.9,8.1,91,0.00,,,0.00,WUHU216HW,2013-12-22 06:56:00,
2013-12-22 01:57:00,33.8,31.4,29.27,East,90,6.9,8.1,91,0.00,,,0.00,WUHU216HW,2013-12-22 06:57:00,
2013-12-22 01:58:00,33.8,31.4,29.26,East,84,5.0,8.1,91,0.00,,,0.00,WUHU216HW,2013-12-22 06:58:00,
2013-12-22 01:59:00,33.8,31.4,29.26,East,85,4.6,8.1,91,0.00,,,0.00,WUHU216HW,2013-12-22 06:59:00,
2013-12-22 02:01:00,33.8,31.4,29.31,NNE,23,2.8,8.1,91,0.00,,,0.00,WUHU216HW,2013-12-22 07:01:00,
2013-12-22 02:02:00,33.8,31.4,29.32,NNE,23,1.8,8.1,91,0.00,,,0.00,WUHU216HW,2013-12-22 07:02:00,
2013-12-22 02:03:00,33.8,31.4,29.32,ENE,68,2.0,8.1,91,0.00,,,0.00,WUHU216HW,2013-12-22 07:03:00,
2013-12-22 02:04:00,33.8,31.4,29.31,ENE,71,1.6,8.1,91,0.00,,,0.00,WUHU216HW,2013-12-22 07:04:00,
2013-12-22 02:06:00,33.8,31.4,29.30,East,82,2.0,6.9,91,0.00,,,0.00,WUHU216HW,2013-12-22 07:06:00,
2013-12-22 02:08:00,33.8,31.4,29.30,ENE,72,2.2,5.4,91,0.00,,,0.00,WUHU216HW,2013-12-22 07:08:00,
2013-12-22 02:09:00,33.8,31.4,29.33,ENE,69,1.2,4.3,91,0.00,,,0.00,WUHU216HW,2013-12-22 07:09:00,
2013-12-22 02:10:00,33.8,31.4,29.33,NW,315,1.1,4.3,91,0.00,,,0.00,WUHU216HW,2013-12-22 07:10:00,
2013-12-22 02:12:00,33.8,31.4,29.36,NW,316,1.1,3.4,91,0.00,,,0.00,WUHU216HW,2013-12-22 07:12:00,
2013-12-22 02:13:00,33.8,31.4,29.36,NNE,23,3.4,3.4,91,0.00,,,0.00,WUHU216HW,2013-12-22 07:13:00,
2013-12-22 02:14:00,34.0,31.6,29.37,NE,52,2.9,4.3,91,0.00,,,0.00,WUHU216HW,2013-12-22 07:14:00,
2013-12-22 02:15:00,34.0,31.6,29.37,ENE,58,2.9,4.3,91,0.00,,,0.00,WUHU216HW,2013-12-22 07:15:00,
2013-12-22 02:17:00,34.0,31.6,29.38,NE,45,1.8,4.3,91,0.00,,,0.00,WUHU216HW,2013-12-22 07:17:00,
2013-12-22 02:18:00,34.0,31.6,29.38,NE,45,2.5,4.3,91,0.00,,,0.00,WUHU216HW,2013-12-22 07:18:00,
2013-12-22 02:19:00,34.0,31.6,29.36,NE,48,1.5,4.3,91,0.00,,,0.00,WUHU216HW,2013-12-22 07:19:00,
2013-12-22 02:20:00,34.0,31.6,29.36,ENE,63,1.0,4.3,91,0.00,,,0.00,WUHU216HW,2013-12-22 07:20:00,
2013-12-22 02:21:00,34.0,31.6,29.35,ENE,68,2.2,4.3,91,0.00,,,0.00,WUHU216HW,2013-12-22 07:21:00,
2013-12-22 02:23:00,34.2,31.8,29.33,ENE,68,3.1,3.6,91,0.00,,,0.00,WUHU216HW,2013-12-22 07:23:00,
2013-12-22 02:25:00,34.0,31.6,29.33,ENE,68,4.0,4.5,91,0.00,,,0.00,WUHU216HW,2013-12-22 07:25:00,
2013-12-22 02:26:00,34.2,31.8,29.30,ENE,60,4.1,4.5,91,0.00,,,0.00,WUHU216HW,2013-12-22 07:26:00,
2013-12-22 02:28:00,34.2,31.8,29.28,ESE,113,6.5,7.6,91,0.00,,,0.00,WUHU216HW,2013-12-22 07:28:00,
2013-12-22 02:29:00,34.2,31.8,29.28,NNE,23,6.9,7.6,91,0.00,,,0.00,WUHU216HW,2013-12-22 07:29:00,
2013-12-22 02:30:00,34.0,31.6,29.28,ENE,59,5.8,7.6,91,0.00,,,0.00,WUHU216HW,2013-12-22 07:30:00,
2013-12-22 02:31:00,34.0,31.6,29.28,NE,45,6.7,7.6,91,0.00,,,0.00,WUHU216HW,2013-12-22 07:31:00,
2013-12-22 02:33:00,34.0,31.6,29.29,NE,55,4.8,7.6,91,0.00,,,0.00,WUHU216HW,2013-12-22 07:33:00,
2013-12-22 02:34:00,34.0,31.6,29.29,NE,45,4.7,7.6,91,0.00,,,0.00,WUHU216HW,2013-12-22 07:34:00,
2013-12-22 02:35:00,34.0,31.6,29.29,NE,45,5.8,7.6,91,0.00,,,0.00,WUHU216HW,2013-12-22 07:35:00,
2013-12-22 02:37:00,34.0,31.6,29.29,ENE,61,4.0,7.6,91,0.00,,,0.00,WUHU216HW,2013-12-22 07:37:00,
2013-12-22 02:38:00,34.0,31.6,29.29,East,90,4.9,6.9,91,0.00,,,0.00,WUHU216HW,2013-12-22 07:38:00,
2013-12-22 02:39:00,34.0,31.6,29.29,ENE,68,5.1,6.9,91,0.00,,,0.00,WUHU216HW,2013-12-22 07:39:00,
2013-12-22 02:40:00,34.0,31.6,29.28,ENE,68,4.3,6.7,91,0.00,,,0.00,WUHU216HW,2013-12-22 07:40:00,
2013-12-22 02:42:00,34.0,31.6,29.27,ENE,67,5.2,8.5,91,0.00,,,0.00,WUHU216HW,2013-12-22 07:42:00,
2013-12-22 02:43:00,34.0,31.6,29.30,ENE,64,4.2,8.5,91,0.00,,,0.00,WUHU216HW,2013-12-22 07:43:00,
2013-12-22 02:44:00,34.0,31.6,29.34,ENE,70,2.4,8.5,91,0.00,,,0.00,WUHU216HW,2013-12-22 07:44:00,
2013-12-22 02:45:00,34.0,31.6,29.37,WSW,248,3.4,8.5,91,0.00,,,0.00,WUHU216HW,2013-12-22 07:45:00,
2013-12-22 02:47:00,34.0,31.6,29.38,WSW,237,2.6,8.5,91,0.00,,,0.00,WUHU216HW,2013-12-22 07:47:00,
2013-12-22 02:48:00,34.2,31.8,29.38,WSW,245,1.6,8.5,91,0.00,,,0.00,WUHU216HW,2013-12-22 07:48:00,
2013-12-22 02:49:00,34.2,31.8,29.39,SW,225,1.1,8.5,91,0.00,,,0.00,WUHU216HW,2013-12-22 07:49:00,
2013-12-22 02:50:00,34.2,31.8,29.39,SW,225,1.1,8.5,91,0.00,,,0.00,WUHU216HW,2013-12-22 07:50:00,
2013-12-22 02:52:00,34.2,31.8,29.39,SSW,210,0.8,3.8,91,0.00,,,0.00,WUHU216HW,2013-12-22 07:52:00,
2013-12-22 02:53:00,34.2,31.8,29.38,SSW,200,0.8,3.8,91,0.00,,,0.00,WUHU216HW,2013-12-22 07:53:00,
2013-12-22 02:54:00,34.2,31.8,29.38,East,90,1.1,3.8,91,0.00,,,0.00,WUHU216HW,2013-12-22 07:54:00,
2013-12-22 02:55:00,34.2,31.8,29.38,NE,45,2.7,3.8,91,0.00,,,0.00,WUHU216HW,2013-12-22 07:55:00,
2013-12-22 02:58:00,34.2,31.8,29.33,East,90,4.9,4.9,91,0.00,,,0.00,WUHU216HW,2013-12-22 07:58:00,
2013-12-22 02:59:00,34.2,31.8,29.37,East,92,3.9,4.9,91,0.00,,,0.00,WUHU216HW,2013-12-22 07:59:00,
2013-12-22 03:00:00,34.2,31.8,29.31,East,93,3.7,4.9,91,0.00,,,0.00,WUHU216HW,2013-12-22 08:00:00,
2013-12-22 03:01:00,34.2,31.8,29.31,East,90,7.4,7.4,91,0.00,,,0.00,WUHU216HW,2013-12-22 08:01:00,
2013-12-22 03:04:00,34.2,31.8,29.31,East,90,4.9,7.4,91,0.00,,,0.00,WUHU216HW,2013-12-22 08:04:00,
2013-12-22 03:05:00,34.2,31.8,29.32,NE,56,3.6,7.4,91,0.00,,,0.00,WUHU216HW,2013-12-22 08:05:00,
2013-12-22 03:06:00,34.2,31.8,29.35,NNE,33,3.5,7.4,91,0.00,,,0.00,WUHU216HW,2013-12-22 08:06:00,
2013-12-22 03:07:00,34.2,31.8,29.37,NNE,21,2.2,7.4,91,0.00,,,0.00,WUHU216HW,2013-12-22 08:07:00,
2013-12-22 03:09:00,34.2,31.8,29.38,North,9,1.0,7.4,91,0.00,,,0.00,WUHU216HW,2013-12-22 08:09:00,
2013-12-22 03:10:00,34.2,31.8,29.35,NE,45,2.5,7.4,91,0.00,,,0.00,WUHU216HW,2013-12-22 08:10:00,
2013-12-22 03:11:00,34.2,31.8,29.34,NE,55,2.4,4.9,91,0.00,,,0.00,WUHU216HW,2013-12-22 08:11:00,
2013-12-22 03:13:00,34.2,31.8,29.36,NE,44,1.5,4.9,91,0.00,,,0.00,WUHU216HW,2013-12-22 08:13:00,
2013-12-22 03:14:00,34.2,31.8,29.38,NNE,12,0.5,4.9,91,0.00,,,0.00,WUHU216HW,2013-12-22 08:14:00,
2013-12-22 03:15:00,34.2,31.8,29.36,NNE,23,2.5,4.0,91,0.00,,,0.00,WUHU216HW,2013-12-22 08:15:00,
2013-12-22 03:16:00,34.2,31.8,29.37,NNE,29,1.4,3.4,91,0.00,,,0.00,WUHU216HW,2013-12-22 08:16:00,
2013-12-22 03:18:00,34.2,31.8,29.37,ENE,68,2.5,3.4,91,0.00,,,0.00,WUHU216HW,2013-12-22 08:18:00,
2013-12-22 03:19:00,34.2,31.8,29.36,ENE,68,1.8,3.4,91,0.00,,,0.00,WUHU216HW,2013-12-22 08:19:00,
2013-12-22 03:20:00,34.2,31.8,29.35,East,90,2.2,3.4,91,0.00,,,0.00,WUHU216HW,2013-12-22 08:20:00,
2013-12-22 03:21:00,34.2,31.8,29.35,ENE,68,2.9,2.9,91,0.00,,,0.00,WUHU216HW,2013-12-22 08:21:00,
2013-12-22 03:22:00,34.2,31.8,29.35,East,90,2.5,2.9,91,0.00,,,0.00,WUHU216HW,2013-12-22 08:22:00,
2013-12-22 03:23:00,34.2,31.8,29.34,East,90,4.5,4.5,91,0.00,,,0.00,WUHU216HW,2013-12-22 08:23:00,
2013-12-22 03:24:00,34.2,31.8,29.34,ENE,68,4.3,5.6,91,0.00,,,0.00,WUHU216HW,2013-12-22 08:24:00,
2013-12-22 03:25:00,34.2,31.8,29.34,ENE,72,3.0,5.6,91,0.00,,,0.00,WUHU216HW,2013-12-22 08:25:00,
2013-12-22 03:26:00,34.2,31.8,29.35,ENE,71,2.4,5.6,91,0.00,,,0.00,WUHU216HW,2013-12-22 08:26:00,
2013-12-22 03:27:00,34.2,31.8,29.35,ENE,77,1.0,5.6,91,0.00,,,0.00,WUHU216HW,2013-12-22 08:27:00,
2013-12-22 03:28:00,34.2,31.8,29.35,ENE,68,1.8,5.6,91,0.00,,,0.00,WUHU216HW,2013-12-22 08:28:00,
2013-12-22 03:29:00,34.2,31.8,29.35,ESE,113,3.4,5.6,91,0.00,,,0.00,WUHU216HW,2013-12-22 08:29:00,
2013-12-22 03:30:00,34.2,31.8,29.33,East,87,2.8,5.6,91,0.00,,,0.00,WUHU216HW,2013-12-22 08:30:00,
2013-12-22 03:31:00,34.0,31.6,29.33,East,94,2.3,5.6,91,0.00,,,0.00,WUHU216HW,2013-12-22 08:31:00,
2013-12-22 03:32:00,34.0,31.6,29.33,East,92,1.5,5.6,91,0.00,,,0.00,WUHU216HW,2013-12-22 08:32:00,
2013-12-22 03:34:00,34.0,31.6,29.35,North,0,1.8,5.6,91,0.00,,,0.00,WUHU216HW,2013-12-22 08:34:00,
2013-12-22 03:35:00,34.0,31.6,29.36,NE,45,2.7,5.1,91,0.00,,,0.00,WUHU216HW,2013-12-22 08:35:00,
2013-12-22 03:36:00,34.0,31.6,29.34,East,90,5.4,5.4,91,0.00,,,0.00,WUHU216HW,2013-12-22 08:36:00,
2013-12-22 03:37:00,34.0,31.6,29.31,ENE,78,4.8,6.7,91,0.00,,,0.00,WUHU216HW,2013-12-22 08:37:00,
2013-12-22 03:39:00,34.0,31.6,29.36,ENE,73,1.5,6.7,91,0.00,,,0.00,WUHU216HW,2013-12-22 08:39:00,
2013-12-22 03:40:00,34.0,31.6,29.35,NE,45,2.2,6.7,91,0.00,,,0.00,WUHU216HW,2013-12-22 08:40:00,
2013-12-22 03:41:00,34.0,31.6,29.33,ENE,68,4.5,7.8,91,0.00,,,0.00,WUHU216HW,2013-12-22 08:41:00,
2013-12-22 03:42:00,34.0,31.6,29.32,ENE,73,5.5,7.8,91,0.00,,,0.00,WUHU216HW,2013-12-22 08:42:00,
2013-12-22 03:44:00,33.8,31.4,29.32,ENE,76,3.0,7.8,91,0.00,,,0.00,WUHU216HW,2013-12-22 08:44:00,
2013-12-22 03:45:00,33.8,31.4,29.34,ENE,68,2.1,7.8,91,0.00,,,0.00,WUHU216HW,2013-12-22 08:45:00,
2013-12-22 03:46:00,33.8,31.4,29.33,East,91,1.4,7.8,91,0.00,,,0.00,WUHU216HW,2013-12-22 08:46:00,
2013-12-22 03:47:00,33.8,31.4,29.33,East,90,3.4,7.8,91,0.00,,,0.00,WUHU216HW,2013-12-22 08:47:00,
2013-12-22 03:50:00,33.8,31.4,29.33,NE,45,4.0,7.8,91,0.00,,,0.00,WUHU216HW,2013-12-22 08:50:00,
2013-12-22 03:51:00,33.8,31.4,29.31,ENE,68,2.2,5.4,91,0.00,,,0.00,WUHU216HW,2013-12-22 08:51:00,
2013-12-22 03:52:00,33.8,31.4,29.30,East,80,2.3,5.4,91,0.00,,,0.00,WUHU216HW,2013-12-22 08:52:00,
2013-12-22 03:53:00,33.8,31.4,29.30,ESE,113,3.4,4.7,91,0.00,,,0.00,WUHU216HW,2013-12-22 08:53:00,
2013-12-22 03:55:00,33.8,31.4,29.30,East,97,1.6,4.7,91,0.00,,,0.00,WUHU216HW,2013-12-22 08:55:00,
2013-12-22 03:56:00,33.8,31.4,29.33,East,90,0.9,4.7,91,0.00,,,0.00,WUHU216HW,2013-12-22 08:56:00,
2013-12-22 03:57:00,33.8,31.4,29.33,NNE,23,2.2,4.7,91,0.00,,,0.00,WUHU216HW,2013-12-22 08:57:00,
2013-12-22 03:58:00,33.8,31.4,29.33,ENE,68,5.8,6.3,91,0.00,,,0.00,WUHU216HW,2013-12-22 08:58:00,
2013-12-22 04:00:00,33.8,31.4,29.27,ENE,70,5.3,7.6,91,0.00,,,0.00,WUHU216HW,2013-12-22 09:00:00,
2013-12-22 04:02:00,33.8,31.4,29.29,NNE,23,4.7,7.6,91,0.00,,,0.00,WUHU216HW,2013-12-22 09:02:00,
2013-12-22 04:03:00,33.7,31.2,29.31,NNE,24,4.7,8.1,91,0.00,,,0.00,WUHU216HW,2013-12-22 09:03:00,
2013-12-22 04:05:00,33.7,31.2,29.33,ENE,59,3.8,8.1,91,0.00,,,0.00,WUHU216HW,2013-12-22 09:05:00,
2013-12-22 04:07:00,33.7,31.2,29.33,East,90,2.5,8.1,91,0.00,,,0.00,WUHU216HW,2013-12-22 09:07:00,
2013-12-22 04:08:00,33.7,31.2,29.30,East,100,2.7,8.1,91,0.00,,,0.00,WUHU216HW,2013-12-22 09:08:00,
2013-12-22 04:10:00,33.7,31.2,29.31,ENE,68,5.1,8.1,91,0.00,,,0.00,WUHU216HW,2013-12-22 09:10:00,
2013-12-22 04:12:00,33.7,31.2,29.33,ENE,75,2.2,8.1,91,0.00,,,0.00,WUHU216HW,2013-12-22 09:12:00,
2013-12-22 04:13:00,33.7,31.2,29.33,East,90,2.9,5.6,91,0.00,,,0.00,WUHU216HW,2013-12-22 09:13:00,
2013-12-22 04:14:00,33.5,31.1,29.33,East,83,1.5,5.4,91,0.00,,,0.00,WUHU216HW,2013-12-22 09:14:00,
2013-12-22 04:16:00,33.5,31.1,29.33,NE,45,7.6,7.6,91,0.00,,,0.00,WUHU216HW,2013-12-22 09:16:00,
2013-12-22 04:17:00,33.5,31.1,29.32,NE,54,5.0,7.6,91,0.00,,,0.00,WUHU216HW,2013-12-22 09:17:00,
2013-12-22 04:18:00,33.5,31.1,29.31,ENE,71,3.1,7.6,91,0.00,,,0.00,WUHU216HW,2013-12-22 09:18:00,
2013-12-22 04:19:00,33.5,31.1,29.31,ENE,64,2.6,7.6,91,0.00,,,0.00,WUHU216HW,2013-12-22 09:19:00,
2013-12-22 04:21:00,33.5,31.1,29.32,NE,51,2.3,7.6,91,0.00,,,0.00,WUHU216HW,2013-12-22 09:21:00,
2013-12-22 04:22:00,33.5,31.1,29.31,NE,37,2.4,7.6,91,0.00,,,0.00,WUHU216HW,2013-12-22 09:22:00,
2013-12-22 04:23:00,33.7,31.2,29.30,NE,45,2.9,7.6,91,0.00,,,0.00,WUHU216HW,2013-12-22 09:23:00,
2013-12-22 04:24:00,33.5,31.1,29.30,NE,51,2.7,7.6,91,0.00,,,0.00,WUHU216HW,2013-12-22 09:24:00,
2013-12-22 04:25:00,33.5,31.1,29.30,East,90,4.0,7.6,91,0.00,,,0.00,WUHU216HW,2013-12-22 09:25:00,
2013-12-22 04:26:00,33.5,31.1,29.28,East,84,4.8,6.9,91,0.00,,,0.00,WUHU216HW,2013-12-22 09:26:00,
2013-12-22 04:27:00,33.5,31.1,29.27,NE,45,6.0,6.9,91,0.00,,,0.00,WUHU216HW,2013-12-22 09:27:00,
2013-12-22 04:28:00,33.5,31.1,29.28,East,90,6.9,6.9,91,0.00,,,0.00,WUHU216HW,2013-12-22 09:28:00,
2013-12-22 04:29:00,33.5,31.1,29.29,ENE,73,6.1,6.9,91,0.00,,,0.00,WUHU216HW,2013-12-22 09:29:00,
2013-12-22 04:30:00,33.5,31.1,29.29,ENE,78,3.7,6.9,91,0.00,,,0.00,WUHU216HW,2013-12-22 09:30:00,
2013-12-22 04:31:00,33.5,31.1,29.29,East,90,3.6,6.9,91,0.00,,,0.00,WUHU216HW,2013-12-22 09:31:00,
2013-12-22 04:32:00,33.5,31.1,29.29,NNE,23,2.5,6.9,91,0.00,,,0.00,WUHU216HW,2013-12-22 09:32:00,
2013-12-22 04:33:00,33.5,31.1,29.29,ENE,72,2.6,6.9,91,0.00,,,0.00,WUHU216HW,2013-12-22 09:33:00,
2013-12-22 04:34:00,33.5,31.1,29.28,NNE,23,5.4,6.9,91,0.00,,,0.00,WUHU216HW,2013-12-22 09:34:00,
2013-12-22 04:35:00,33.5,31.1,29.28,NE,45,5.1,6.9,91,0.00,,,0.00,WUHU216HW,2013-12-22 09:35:00,
2013-12-22 04:37:00,33.5,31.1,29.29,ENE,66,3.5,6.9,91,0.00,,,0.00,WUHU216HW,2013-12-22 09:37:00,
2013-12-22 04:38:00,33.5,31.1,29.29,East,90,4.9,6.9,91,0.00,,,0.00,WUHU216HW,2013-12-22 09:38:00,
2013-12-22 04:39:00,33.5,31.1,29.29,SE,135,4.5,6.9,91,0.00,,,0.00,WUHU216HW,2013-12-22 09:39:00,
2013-12-22 04:41:00,33.5,31.1,29.29,NE,45,4.0,6.9,91,0.00,,,0.00,WUHU216HW,2013-12-22 09:41:00,
2013-12-22 04:42:00,33.5,31.1,29.28,ENE,71,4.2,6.9,91,0.00,,,0.00,WUHU216HW,2013-12-22 09:42:00,
2013-12-22 04:43:00,33.5,31.1,29.28,ENE,68,6.0,6.9,91,0.00,,,0.00,WUHU216HW,2013-12-22 09:43:00,
2013-12-22 04:44:00,33.5,31.1,29.29,ENE,60,4.7,6.9,91,0.00,,,0.00,WUHU216HW,2013-12-22 09:44:00,
2013-12-22 04:46:00,33.5,31.1,29.29,NE,45,6.0,7.2,91,0.00,,,0.00,WUHU216HW,2013-12-22 09:46:00,
2013-12-22 04:47:00,33.5,31.1,29.29,ENE,60,4.0,7.2,91,0.00,,,0.00,WUHU216HW,2013-12-22 09:47:00,
2013-12-22 04:48:00,33.5,31.1,29.29,East,90,4.3,7.2,91,0.00,,,0.00,WUHU216HW,2013-12-22 09:48:00,
2013-12-22 04:49:00,33.5,31.1,29.30,North,0,3.1,7.2,91,0.00,,,0.00,WUHU216HW,2013-12-22 09:49:00,
2013-12-22 04:50:00,33.5,31.1,29.30,WNW,294,2.0,7.2,91,0.00,,,0.00,WUHU216HW,2013-12-22 09:50:00,
2013-12-22 04:51:00,33.5,31.1,29.30,North,0,2.9,7.2,91,0.00,,,0.00,WUHU216HW,2013-12-22 09:51:00,
2013-12-22 04:53:00,33.5,31.1,29.30,NE,45,7.6,7.6,91,0.00,,,0.00,WUHU216HW,2013-12-22 09:53:00,
2013-12-22 04:54:00,33.5,31.1,29.29,ENE,58,5.1,7.6,91,0.00,,,0.00,WUHU216HW,2013-12-22 09:54:00,
2013-12-22 04:55:00,33.5,31.1,29.29,ENE,61,4.6,7.6,91,0.00,,,0.00,WUHU216HW,2013-12-22 09:55:00,
2013-12-22 04:56:00,33.5,31.1,29.30,ENE,62,2.8,7.6,91,0.00,,,0.00,WUHU216HW,2013-12-22 09:56:00,
2013-12-22 04:58:00,33.7,31.2,29.30,ENE,68,2.5,7.6,91,0.00,,,0.00,WUHU216HW,2013-12-22 09:58:00,
2013-12-22 05:00:00,33.5,31.1,29.30,NNE,23,3.1,7.6,91,0.00,,,0.00,WUHU216HW,2013-12-22 10:00:00,
2013-12-22 05:02:00,33.5,31.1,29.30,NNE,19,4.1,7.6,91,0.00,,,0.00,WUHU216HW,2013-12-22 10:02:00,
2013-12-22 05:03:00,33.7,31.2,29.29,ENE,68,5.4,7.6,91,0.00,,,0.00,WUHU216HW,2013-12-22 10:03:00,
2013-12-22 05:05:00,33.5,31.1,29.30,NE,45,7.6,7.6,91,0.00,,,0.00,WUHU216HW,2013-12-22 10:05:00,
2013-12-22 05:07:00,33.7,31.2,29.30,NE,45,7.8,7.8,91,0.00,,,0.00,WUHU216HW,2013-12-22 10:07:00,
2013-12-22 05:08:00,33.7,31.2,29.29,NE,39,5.3,7.8,91,0.00,,,0.00,WUHU216HW,2013-12-22 10:08:00,
2013-12-22 05:10:00,33.7,31.2,29.30,NE,45,6.7,7.8,91,0.00,,,0.00,WUHU216HW,2013-12-22 10:10:00,
2013-12-22 05:11:00,33.7,31.2,29.30,NNE,30,5.3,7.8,91,0.00,,,0.00,WUHU216HW,2013-12-22 10:11:00,
2013-12-22 05:12:00,33.7,31.2,29.30,NE,37,5.3,7.8,91,0.00,,,0.00,WUHU216HW,2013-12-22 10:12:00,
2013-12-22 05:13:00,33.7,31.2,29.29,NE,37,2.7,7.8,91,0.00,,,0.00,WUHU216HW,2013-12-22 10:13:00,
2013-12-22 05:15:00,33.5,31.1,29.29,NNE,30,2.4,7.8,91,0.00,,,0.00,WUHU216HW,2013-12-22 10:15:00,
2013-12-22 05:16:00,33.7,31.2,29.29,North,0,3.1,7.8,91,0.00,,,0.00,WUHU216HW,2013-12-22 10:16:00,
2013-12-22 05:17:00,33.7,31.2,29.30,NNE,14,2.2,7.8,91,0.00,,,0.00,WUHU216HW,2013-12-22 10:17:00,
2013-12-22 05:18:00,33.7,31.2,29.30,NNE,23,3.4,6.7,91,0.00,,,0.00,WUHU216HW,2013-12-22 10:18:00,
2013-12-22 05:20:00,33.7,31.2,29.29,NNE,19,3.6,6.7,91,0.00,,,0.00,WUHU216HW,2013-12-22 10:20:00,
2013-12-22 05:21:00,33.7,31.2,29.28,NNE,24,4.2,5.4,91,0.00,,,0.00,WUHU216HW,2013-12-22 10:21:00,
2013-12-22 05:22:00,33.7,31.2,29.28,NNE,23,4.3,5.4,91,0.00,,,0.00,WUHU216HW,2013-12-22 10:22:00,
2013-12-22 05:23:00,33.7,31.2,29.28,NNE,23,5.1,6.0,91,0.00,,,0.00,WUHU216HW,2013-12-22 10:23:00,
2013-12-22 05:25:00,33.7,31.2,29.28,NNE,27,3.8,6.9,91,0.00,,,0.00,WUHU216HW,2013-12-22 10:25:00,
2013-12-22 05:26:00,33.7,31.2,29.28,NNE,23,3.6,6.9,91,0.00,,,0.00,WUHU216HW,2013-12-22 10:26:00,
2013-12-22 05:27:00,33.7,31.2,29.27,NNE,23,3.4,6.9,91,0.00,,,0.00,WUHU216HW,2013-12-22 10:27:00,
2013-12-22 05:28:00,33.7,31.2,29.27,NE,45,4.0,6.9,91,0.00,,,0.00,WUHU216HW,2013-12-22 10:28:00,
2013-12-22 05:31:00,33.7,31.2,29.29,North,2,4.2,7.4,91,0.00,,,0.00,WUHU216HW,2013-12-22 10:31:00,
2013-12-22 05:32:00,33.7,31.2,29.30,North,10,2.9,7.4,91,0.00,,,0.00,WUHU216HW,2013-12-22 10:32:00,
2013-12-22 05:33:00,33.7,31.2,29.30,NNE,31,2.7,7.4,91,0.00,,,0.00,WUHU216HW,2013-12-22 10:33:00,
2013-12-22 05:34:00,33.7,31.2,29.30,NE,45,6.3,7.4,91,0.00,,,0.00,WUHU216HW,2013-12-22 10:34:00,
2013-12-22 05:36:00,33.7,31.5,29.28,NE,45,4.7,7.4,92,0.00,,,0.00,WUHU216HW,2013-12-22 10:36:00,
2013-12-22 05:37:00,33.7,31.2,29.27,ENE,64,4.3,7.4,91,0.00,,,0.00,WUHU216HW,2013-12-22 10:37:00,
2013-12-22 05:38:00,33.7,31.5,29.27,ENE,59,4.0,7.4,92,0.00,,,0.00,WUHU216HW,2013-12-22 10:38:00,
2013-12-22 05:39:00,33.7,31.2,29.27,ENE,68,5.6,7.4,91,0.00,,,0.00,WUHU216HW,2013-12-22 10:39:00,
2013-12-22 05:41:00,33.7,31.2,29.28,NE,42,4.1,6.3,91,0.00,,,0.00,WUHU216HW,2013-12-22 10:41:00,
2013-12-22 05:42:00,33.7,31.2,29.28,NNE,32,2.6,6.3,91,0.00,,,0.00,WUHU216HW,2013-12-22 10:42:00,
2013-12-22 05:43:00,33.7,31.5,29.28,NNE,23,1.8,6.3,92,0.00,,,0.00,WUHU216HW,2013-12-22 10:43:00,
2013-12-22 05:44:00,33.7,31.2,29.28,NE,45,1.6,6.3,91,0.00,,,0.00,WUHU216HW,2013-12-22 10:44:00,
2013-12-22 05:46:00,33.7,31.2,29.30,North,6,2.0,5.6,91,0.00,,,0.00,WUHU216HW,2013-12-22 10:46:00,
2013-12-22 05:47:00,33.7,31.2,29.30,NE,45,4.0,5.6,91,0.00,,,0.00,WUHU216HW,2013-12-22 10:47:00,
2013-12-22 05:48:00,33.7,31.2,29.29,NE,45,3.8,5.6,91,0.00,,,0.00,WUHU216HW,2013-12-22 10:48:00,
2013-12-22 05:49:00,33.7,31.2,29.29,NE,42,2.7,5.4,91,0.00,,,0.00,WUHU216HW,2013-12-22 10:49:00,
2013-12-22 05:51:00,33.7,31.2,29.29,NNE,32,2.8,4.3,91,0.00,,,0.00,WUHU216HW,2013-12-22 10:51:00,
2013-12-22 05:53:00,33.7,31.2,29.28,NE,45,4.0,4.3,91,0.00,,,0.00,WUHU216HW,2013-12-22 10:53:00,
2013-12-22 05:54:00,33.7,31.2,29.28,NNE,23,2.7,4.3,91,0.00,,,0.00,WUHU216HW,2013-12-22 10:54:00,
2013-12-22 05:57:00,33.7,31.2,29.28,ENE,68,5.6,5.6,91,0.00,,,0.00,WUHU216HW,2013-12-22 10:57:00,
2013-12-22 05:58:00,33.7,31.2,29.28,NE,46,4.2,5.6,91,0.00,,,0.00,WUHU216HW,2013-12-22 10:58:00,
2013-12-22 06:00:00,33.7,31.2,29.28,NE,45,3.4,5.6,91,0.00,,,0.00,WUHU216HW,2013-12-22 11:00:00,
2013-12-22 06:02:00,33.7,31.2,29.28,NNE,23,3.1,5.6,91,0.00,,,0.00,WUHU216HW,2013-12-22 11:02:00,
2013-12-22 06:03:00,33.7,31.2,29.28,NNE,33,2.9,5.6,91,0.00,,,0.00,WUHU216HW,2013-12-22 11:03:00,
2013-12-22 06:04:00,33.7,31.2,29.28,NE,45,4.4,7.4,91,0.00,,,0.00,WUHU216HW,2013-12-22 11:04:00,
2013-12-22 06:05:00,33.7,31.2,29.28,NE,40,4.2,7.4,91,0.00,,,0.00,WUHU216HW,2013-12-22 11:05:00,
2013-12-22 06:07:00,33.7,31.5,29.27,NE,45,2.9,7.4,92,0.00,,,0.00,WUHU216HW,2013-12-22 11:07:00,
2013-12-22 06:08:00,33.7,31.2,29.27,ENE,68,5.4,7.4,91,0.00,,,0.00,WUHU216HW,2013-12-22 11:08:00,
2013-12-22 06:09:00,33.7,31.2,29.27,NE,45,3.4,7.4,91,0.00,,,0.00,WUHU216HW,2013-12-22 11:09:00,
2013-12-22 06:10:00,33.7,31.2,29.28,NE,51,3.5,7.4,91,0.00,,,0.00,WUHU216HW,2013-12-22 11:10:00,
2013-12-22 06:12:00,33.7,31.2,29.29,NE,56,2.6,7.4,91,0.00,,,0.00,WUHU216HW,2013-12-22 11:12:00,
2013-12-22 06:14:00,33.7,31.2,29.28,NE,36,4.2,5.6,91,0.00,,,0.00,WUHU216HW,2013-12-22 11:14:00,
2013-12-22 06:15:00,33.7,31.2,29.28,NE,45,6.5,6.5,91,0.00,,,0.00,WUHU216HW,2013-12-22 11:15:00,
2013-12-22 06:17:00,33.7,31.2,29.28,NE,54,2.8,6.5,91,0.00,,,0.00,WUHU216HW,2013-12-22 11:17:00,
2013-12-22 06:19:00,33.7,31.5,29.28,ENE,68,4.5,7.4,92,0.00,,,0.00,WUHU216HW,2013-12-22 11:19:00,
2013-12-22 06:20:00,33.7,31.5,29.28,ENE,68,4.5,7.4,92,0.00,,,0.00,WUHU216HW,2013-12-22 11:20:00,
2013-12-22 06:22:00,33.7,31.5,29.29,ENE,68,1.1,7.4,92,0.00,,,0.00,WUHU216HW,2013-12-22 11:22:00,
2013-12-22 06:24:00,33.7,31.5,29.29,ENE,68,2.5,7.4,92,0.00,,,0.00,WUHU216HW,2013-12-22 11:24:00,
2013-12-22 06:25:00,33.7,31.2,29.29,NE,49,2.6,7.4,91,0.00,,,0.00,WUHU216HW,2013-12-22 11:25:00,
2013-12-22 06:28:00,33.7,31.2,29.28,ENE,64,1.8,7.4,91,0.00,,,0.00,WUHU216HW,2013-12-22 11:28:00,
2013-12-22 06:29:00,33.7,31.2,29.28,ENE,68,4.7,4.7,91,0.00,,,0.00,WUHU216HW,2013-12-22 11:29:00,
2013-12-22 06:30:00,33.7,31.2,29.27,NE,45,4.0,4.7,91,0.00,,,0.00,WUHU216HW,2013-12-22 11:30:00,
2013-12-22 06:33:00,33.7,31.2,29.27,NE,55,4.5,6.3,91,0.00,,,0.00,WUHU216HW,2013-12-22 11:33:00,
2013-12-22 06:35:00,33.8,31.7,29.28,NE,39,3.3,6.3,92,0.00,,,0.00,WUHU216HW,2013-12-22 11:35:00,
2013-12-22 06:36:00,33.7,31.2,29.29,North,0,4.7,6.3,91,0.00,,,0.00,WUHU216HW,2013-12-22 11:36:00,
2013-12-22 06:38:00,33.7,31.5,29.28,NE,41,2.6,6.3,92,0.00,,,0.00,WUHU216HW,2013-12-22 11:38:00,
2013-12-22 06:40:00,33.7,31.2,29.29,East,90,3.8,6.3,91,0.00,,,0.00,WUHU216HW,2013-12-22 11:40:00,
2013-12-22 06:41:00,33.8,31.4,29.29,South,180,2.5,6.3,91,0.00,,,0.00,WUHU216HW,2013-12-22 11:41:00,
2013-12-22 06:43:00,33.8,31.7,29.29,SSW,208,2.2,5.4,92,0.00,,,0.00,WUHU216HW,2013-12-22 11:43:00,
2013-12-22 06:46:00,33.8,31.7,29.29,ENE,68,4.0,4.0,92,0.00,,,0.00,WUHU216HW,2013-12-22 11:46:00,
2013-12-22 06:48:00,33.8,31.7,29.29,NE,50,4.2,6.3,92,0.00,,,0.00,WUHU216HW,2013-12-22 11:48:00,
2013-12-22 06:51:00,33.8,31.7,29.30,NE,52,2.1,6.3,92,0.00,,,0.00,WUHU216HW,2013-12-22 11:51:00,
2013-12-22 06:52:00,33.8,31.4,29.30,ENE,70,1.5,6.3,91,0.00,,,0.00,WUHU216HW,2013-12-22 11:52:00,
2013-12-22 06:53:00,34.0,31.9,29.30,NE,37,0.9,6.3,92,0.00,,,0.00,WUHU216HW,2013-12-22 11:53:00,
2013-12-22 06:54:00,34.0,31.6,29.30,ENE,68,0.4,6.3,91,0.00,,,0.00,WUHU216HW,2013-12-22 11:54:00,
2013-12-22 06:56:00,34.0,31.6,29.30,NE,45,3.4,6.3,91,0.00,,,0.00,WUHU216HW,2013-12-22 11:56:00,
2013-12-22 06:57:00,34.0,31.6,29.30,NE,51,3.3,6.3,91,0.00,,,0.00,WUHU216HW,2013-12-22 11:57:00,
2013-12-22 06:58:00,34.0,31.6,29.30,ENE,68,2.9,4.9,91,0.00,,,0.00,WUHU216HW,2013-12-22 11:58:00,
2013-12-22 07:00:00,34.0,31.6,29.30,NNE,23,3.8,4.9,91,0.00,,,0.00,WUHU216HW,2013-12-22 12:00:00,
2013-12-22 07:01:00,34.0,31.6,29.30,NE,50,3.7,4.9,91,0.00,,,0.00,WUHU216HW,2013-12-22 12:01:00,
2013-12-22 07:02:00,34.0,31.6,29.30,NE,48,2.9,4.9,91,0.00,,,0.00,WUHU216HW,2013-12-22 12:02:00,
2013-12-22 07:03:00,34.0,31.6,29.30,NNE,23,3.6,4.9,91,0.00,,,0.00,WUHU216HW,2013-12-22 12:03:00,
2013-12-22 07:05:00,34.0,31.6,29.30,NE,45,4.5,5.1,91,0.00,,,0.00,WUHU216HW,2013-12-22 12:05:00,
2013-12-22 07:06:00,34.0,31.9,29.30,East,90,6.5,6.5,92,0.00,,,0.00,WUHU216HW,2013-12-22 12:06:00,
2013-12-22 07:07:00,34.0,31.9,29.30,East,90,5.1,6.5,92,0.00,,,0.00,WUHU216HW,2013-12-22 12:07:00,
2013-12-22 07:08:00,34.0,31.9,29.30,ENE,62,4.5,6.5,92,0.00,,,0.00,WUHU216HW,2013-12-22 12:08:00,
2013-12-22 07:10:00,34.0,31.9,29.30,NE,45,4.0,6.5,92,0.00,,,0.00,WUHU216HW,2013-12-22 12:10:00,
2013-12-22 07:11:00,34.0,31.6,29.30,NE,54,3.2,6.5,91,0.00,,,0.00,WUHU216HW,2013-12-22 12:11:00,
2013-12-22 07:12:00,34.0,31.9,29.31,NE,47,1.7,6.5,92,0.00,,,0.00,WUHU216HW,2013-12-22 12:12:00,
2013-12-22 07:13:00,34.0,31.6,29.31,NE,55,1.4,6.5,91,0.00,,,0.00,WUHU216HW,2013-12-22 12:13:00,
2013-12-22 07:15:00,34.0,31.9,29.31,SSE,149,0.6,6.5,92,0.00,,,0.00,WUHU216HW,2013-12-22 12:15:00,
2013-12-22 07:17:00,34.0,31.9,29.31,South,180,0.4,5.4,92,0.00,,,0.00,WUHU216HW,2013-12-22 12:17:00,
2013-12-22 07:18:00,34.0,31.6,29.31,North,0,1.8,5.4,91,0.00,,,0.00,WUHU216HW,2013-12-22 12:18:00,
2013-12-22 07:20:00,34.2,31.8,29.32,NE,53,1.1,4.0,91,0.00,,,0.00,WUHU216HW,2013-12-22 12:20:00,
2013-12-22 07:22:00,34.0,31.6,29.32,East,90,1.1,2.2,91,0.00,,,0.00,WUHU216HW,2013-12-22 12:22:00,
2013-12-22 07:23:00,34.0,31.6,29.32,NE,45,2.0,3.6,91,0.00,,,0.00,WUHU216HW,2013-12-22 12:23:00,
2013-12-22 07:24:00,34.0,31.6,29.31,NE,50,2.2,3.6,91,0.00,,,0.00,WUHU216HW,2013-12-22 12:24:00,
2013-12-22 07:26:00,34.0,31.6,29.32,ENE,66,1.4,3.6,91,0.00,,,0.00,WUHU216HW,2013-12-22 12:26:00,
2013-12-22 07:27:00,34.0,31.6,29.31,NE,54,1.5,3.6,91,0.00,,,0.00,WUHU216HW,2013-12-22 12:27:00,
2013-12-22 07:28:00,34.0,31.6,29.31,NNE,29,1.2,3.6,91,0.00,,,0.00,WUHU216HW,2013-12-22 12:28:00,
2013-12-22 07:29:00,34.0,31.6,29.31,NNE,23,1.1,3.6,91,0.00,,,0.00,WUHU216HW,2013-12-22 12:29:00,
2013-12-22 07:31:00,34.0,31.6,29.32,NNE,23,1.6,3.6,91,0.00,,,0.00,WUHU216HW,2013-12-22 12:31:00,
2013-12-22 07:32:00,34.0,31.6,29.32,NE,42,1.3,3.6,91,0.00,,,0.00,WUHU216HW,2013-12-22 12:32:00,
2013-12-22 07:33:00,34.0,31.6,29.32,NNE,23,3.8,3.8,91,0.00,,,0.00,WUHU216HW,2013-12-22 12:33:00,
2013-12-22 07:34:00,34.0,31.6,29.32,NE,45,2.5,3.8,91,0.00,,,0.00,WUHU216HW,2013-12-22 12:34:00,
2013-12-22 07:36:00,34.0,31.6,29.32,ENE,75,1.4,3.8,91,0.00,,,0.00,WUHU216HW,2013-12-22 12:36:00,
2013-12-22 07:37:00,34.0,31.6,29.32,NE,45,0.9,3.8,91,0.00,,,0.00,WUHU216HW,2013-12-22 12:37:00,
2013-12-22 07:38:00,34.0,31.6,29.32,ENE,68,2.0,3.8,91,0.00,,,0.00,WUHU216HW,2013-12-22 12:38:00,
2013-12-22 07:39:00,34.0,31.6,29.32,ENE,59,1.7,3.8,91,0.00,,,0.00,WUHU216HW,2013-12-22 12:39:00,
2013-12-22 07:42:00,34.0,31.6,29.32,East,90,0.2,3.8,91,0.00,,,0.00,WUHU216HW,2013-12-22 12:42:00,
2013-12-22 07:43:00,34.0,31.6,29.32,ENE,68,1.3,3.6,91,0.00,,,0.00,WUHU216HW,2013-12-22 12:43:00,
2013-12-22 07:44:00,34.0,31.6,29.32,East,90,2.2,3.6,91,0.00,,,0.00,WUHU216HW,2013-12-22 12:44:00,
2013-12-22 07:45:00,34.0,31.6,29.32,ENE,57,1.8,3.6,91,0.00,,,0.00,WUHU216HW,2013-12-22 12:45:00,
2013-12-22 07:47:00,34.0,31.6,29.32,East,90,1.1,3.6,91,0.00,,,0.00,WUHU216HW,2013-12-22 12:47:00,
2013-12-22 07:48:00,34.0,31.6,29.33,ENE,68,0.9,3.6,91,0.00,,,0.00,WUHU216HW,2013-12-22 12:48:00,
2013-12-22 07:49:00,34.0,31.6,29.33,North,0,1.6,2.2,91,0.00,,,0.00,WUHU216HW,2013-12-22 12:49:00,
2013-12-22 07:50:00,34.0,31.6,29.33,NE,46,1.6,2.2,91,0.00,,,0.00,WUHU216HW,2013-12-22 12:50:00,
2013-12-22 07:51:00,34.0,31.6,29.32,ENE,69,1.5,2.2,91,0.00,,,0.00,WUHU216HW,2013-12-22 12:51:00,
2013-12-22 07:52:00,34.0,31.6,29.33,ENE,71,1.2,2.2,91,0.00,,,0.00,WUHU216HW,2013-12-22 12:52:00,
2013-12-22 07:53:00,34.0,31.6,29.33,ENE,57,1.2,2.2,91,0.00,,,0.00,WUHU216HW,2013-12-22 12:53:00,
2013-12-22 07:54:00,34.0,31.6,29.33,ENE,57,1.0,2.2,91,0.00,,,0.00,WUHU216HW,2013-12-22 12:54:00,
2013-12-22 07:56:00,34.0,31.6,29.33,NE,41,0.7,2.0,91,0.00,,,0.00,WUHU216HW,2013-12-22 12:56:00,
2013-12-22 07:57:00,34.0,31.6,29.33,NE,45,1.8,2.0,91,0.00,,,0.00,WUHU216HW,2013-12-22 12:57:00,
2013-12-22 07:58:00,34.0,31.6,29.33,ENE,68,1.8,2.5,91,0.00,,,0.00,WUHU216HW,2013-12-22 12:58:00,
2013-12-22 07:59:00,34.0,31.6,29.33,ENE,65,1.5,2.5,91,0.00,,,0.00,WUHU216HW,2013-12-22 12:59:00,
2013-12-22 08:01:00,34.0,31.6,29.33,NE,45,2.2,3.4,91,0.00,,,0.00,WUHU216HW,2013-12-22 13:01:00,
2013-12-22 08:02:00,34.0,31.6,29.33,ENE,58,1.7,3.4,91,0.00,,,0.00,WUHU216HW,2013-12-22 13:02:00,
2013-12-22 08:03:00,34.0,31.6,29.33,ENE,59,0.8,3.4,91,0.00,,,0.00,WUHU216HW,2013-12-22 13:03:00,
2013-12-22 08:04:00,34.0,31.6,29.33,NNE,23,0.6,3.4,91,0.00,,,0.00,WUHU216HW,2013-12-22 13:04:00,
2013-12-22 08:06:00,34.0,31.6,29.33,WNW,293,0.7,3.4,91,0.00,,,0.00,WUHU216HW,2013-12-22 13:06:00,
2013-12-22 08:08:00,34.0,31.6,29.33,NNW,338,1.1,3.4,91,0.00,,,0.00,WUHU216HW,2013-12-22 13:08:00,
2013-12-22 08:10:00,34.0,31.6,29.33,NNW,334,0.5,3.4,91,0.00,,,0.00,WUHU216HW,2013-12-22 13:10:00,
2013-12-22 08:11:00,34.0,31.6,29.33,West,270,1.8,2.2,91,0.00,,,0.00,WUHU216HW,2013-12-22 13:11:00,
2013-12-22 08:13:00,34.2,31.8,29.34,NNE,23,1.6,2.0,91,0.00,,,0.00,WUHU216HW,2013-12-22 13:13:00,
2013-12-22 08:14:00,34.2,31.8,29.34,NE,45,2.9,3.1,91,0.00,,,0.00,WUHU216HW,2013-12-22 13:14:00,
2013-12-22 08:15:00,34.2,31.8,29.34,NE,45,4.0,4.7,91,0.00,,,0.00,WUHU216HW,2013-12-22 13:15:00,
2013-12-22 08:16:00,34.2,31.8,29.33,NE,43,3.1,4.7,91,0.00,,,0.00,WUHU216HW,2013-12-22 13:16:00,
2013-12-22 08:19:00,34.2,31.8,29.34,SW,225,0.4,4.7,91,0.00,,,0.00,WUHU216HW,2013-12-22 13:19:00,
2013-12-22 08:20:00,34.2,31.8,29.34,NNW,338,1.8,4.7,91,0.00,,,0.00,WUHU216HW,2013-12-22 13:20:00,
2013-12-22 08:21:00,34.2,31.8,29.34,West,270,1.6,4.7,91,0.00,,,0.00,WUHU216HW,2013-12-22 13:21:00,
2013-12-22 08:24:00,34.2,31.8,29.34,West,274,1.5,4.7,91,0.00,,,0.00,WUHU216HW,2013-12-22 13:24:00,
2013-12-22 08:25:00,34.2,31.8,29.34,NNE,23,1.1,2.9,91,0.00,,,0.00,WUHU216HW,2013-12-22 13:25:00,
2013-12-22 08:27:00,34.2,31.8,29.34,NE,35,0.7,2.7,91,0.00,,,0.00,WUHU216HW,2013-12-22 13:27:00,
2013-12-22 08:29:00,34.2,31.8,29.34,North,1,0.6,2.7,91,0.00,,,0.00,WUHU216HW,2013-12-22 13:29:00,
2013-12-22 08:30:00,34.2,31.8,29.34,NNE,23,1.1,2.7,91,0.00,,,0.00,WUHU216HW,2013-12-22 13:30:00,
2013-12-22 08:31:00,34.2,31.8,29.34,North,0,1.8,2.7,91,0.00,,,0.00,WUHU216HW,2013-12-22 13:31:00,
2013-12-22 08:32:00,34.2,31.8,29.35,North,6,0.6,1.8,91,0.00,,,0.00,WUHU216HW,2013-12-22 13:32:00,
2013-12-22 08:34:00,34.2,31.8,29.35,North,0,0.0,1.8,91,0.00,,,0.00,WUHU216HW,2013-12-22 13:34:00,
2013-12-22 08:35:00,34.2,31.8,29.35,North,0,0.0,1.8,91,0.00,,,0.00,WUHU216HW,2013-12-22 13:35:00,
2013-12-22 08:37:00,34.2,31.8,29.34,NE,45,0.4,1.8,91,0.00,,,0.00,WUHU216HW,2013-12-22 13:37:00,
2013-12-22 08:38:00,34.2,31.8,29.34,ENE,68,0.8,1.8,91,0.00,,,0.00,WUHU216HW,2013-12-22 13:38:00,
2013-12-22 08:40:00,34.2,31.8,29.34,ESE,113,0.4,1.8,91,0.00,,,0.00,WUHU216HW,2013-12-22 13:40:00,
2013-12-22 08:41:00,34.2,31.8,29.35,ESE,104,0.3,1.3,91,0.00,,,0.00,WUHU216HW,2013-12-22 13:41:00,
2013-12-22 08:42:00,34.2,31.8,29.35,ESE,113,0.2,1.3,91,0.00,,,0.00,WUHU216HW,2013-12-22 13:42:00,
2013-12-22 08:44:00,34.2,31.8,29.35,ESE,113,0.6,1.3,91,0.00,,,0.00,WUHU216HW,2013-12-22 13:44:00,
2013-12-22 08:45:00,34.2,31.8,29.36,ESE,113,0.4,1.3,91,0.00,,,0.00,WUHU216HW,2013-12-22 13:45:00,
2013-12-22 08:46:00,34.2,31.8,29.37,SW,225,0.7,1.3,91,0.00,,,0.00,WUHU216HW,2013-12-22 13:46:00,
2013-12-22 08:47:00,34.4,32.0,29.36,SW,225,0.6,0.7,91,0.00,,,0.00,WUHU216HW,2013-12-22 13:47:00,
2013-12-22 08:49:00,34.4,32.0,29.36,SW,225,0.0,0.7,91,0.00,,,0.00,WUHU216HW,2013-12-22 13:49:00,
2013-12-22 08:50:00,34.2,31.8,29.36,SW,225,0.0,0.7,91,0.00,,,0.00,WUHU216HW,2013-12-22 13:50:00,
2013-12-22 08:51:00,34.4,32.0,29.36,SW,225,0.0,0.7,91,0.00,,,0.00,WUHU216HW,2013-12-22 13:51:00,
2013-12-22 08:53:00,34.4,32.0,29.37,WSW,248,1.1,1.1,91,0.00,,,0.00,WUHU216HW,2013-12-22 13:53:00,
2013-12-22 08:54:00,34.2,31.8,29.38,WSW,248,1.1,1.1,91,0.00,,,0.00,WUHU216HW,2013-12-22 13:54:00,
2013-12-22 08:55:00,34.2,31.8,29.38,WSW,248,1.1,1.3,91,0.00,,,0.00,WUHU216HW,2013-12-22 13:55:00,
2013-12-22 08:56:00,34.4,32.0,29.38,WSW,248,0.8,1.3,91,0.00,,,0.00,WUHU216HW,2013-12-22 13:56:00,
2013-12-22 08:58:00,34.2,31.8,29.37,WSW,248,0.0,1.3,91,0.00,,,0.00,WUHU216HW,2013-12-22 13:58:00,
2013-12-22 09:00:00,34.2,31.8,29.37,WSW,248,0.0,1.3,91,0.00,,,0.00,WUHU216HW,2013-12-22 14:00:00,
2013-12-22 09:01:00,34.2,31.8,29.37,WSW,248,0.0,1.3,91,0.00,,,0.00,WUHU216HW,2013-12-22 14:01:00,
2013-12-22 09:02:00,34.2,31.8,29.38,WSW,248,0.0,1.3,91,0.00,,,0.00,WUHU216HW,2013-12-22 14:02:00,
2013-12-22 09:04:00,34.4,32.0,29.37,WSW,248,0.0,1.3,91,0.00,,,0.00,WUHU216HW,2013-12-22 14:04:00,
2013-12-22 09:05:00,34.4,32.0,29.37,WSW,248,0.4,0.4,91,0.00,,,0.00,WUHU216HW,2013-12-22 14:05:00,
2013-12-22 09:06:00,34.4,32.0,29.37,WSW,248,0.4,0.4,91,0.00,,,0.00,WUHU216HW,2013-12-22 14:06:00,
2013-12-22 09:07:00,34.4,32.0,29.37,WSW,248,0.4,0.4,91,0.00,,,0.00,WUHU216HW,2013-12-22 14:07:00,
2013-12-22 09:09:00,34.4,32.0,29.37,WSW,248,1.0,1.1,91,0.00,,,0.00,WUHU216HW,2013-12-22 14:09:00,
2013-12-22 09:10:00,34.4,32.0,29.37,WSW,248,1.1,1.1,91,0.00,,,0.00,WUHU216HW,2013-12-22 14:10:00,
2013-12-22 09:11:00,34.4,32.0,29.37,WSW,248,0.9,1.1,91,0.00,,,0.00,WUHU216HW,2013-12-22 14:11:00,
2013-12-22 09:12:00,34.4,32.0,29.37,WSW,248,1.1,1.1,91,0.00,,,0.00,WUHU216HW,2013-12-22 14:12:00,
2013-12-22 09:14:00,34.4,32.0,29.38,West,270,1.6,1.8,91,0.00,,,0.00,WUHU216HW,2013-12-22 14:14:00,
2013-12-22 09:15:00,34.4,32.0,29.38,West,270,1.3,1.8,91,0.00,,,0.00,WUHU216HW,2013-12-22 14:15:00,
2013-12-22 09:16:00,34.4,32.0,29.38,West,270,1.0,1.8,91,0.00,,,0.00,WUHU216HW,2013-12-22 14:16:00,
2013-12-22 09:17:00,34.4,32.0,29.38,West,270,0.8,1.8,91,0.00,,,0.00,WUHU216HW,2013-12-22 14:17:00,
2013-12-22 09:19:00,34.4,32.0,29.38,WNW,282,0.8,1.8,91,0.00,,,0.00,WUHU216HW,2013-12-22 14:19:00,
2013-12-22 09:20:00,34.4,32.0,29.38,WNW,293,1.3,1.8,91,0.00,,,0.00,WUHU216HW,2013-12-22 14:20:00,
2013-12-22 09:21:00,34.4,32.0,29.38,NW,315,1.1,1.8,91,0.00,,,0.00,WUHU216HW,2013-12-22 14:21:00,
2013-12-22 09:22:00,34.4,32.0,29.37,NW,315,1.3,1.8,91,0.00,,,0.00,WUHU216HW,2013-12-22 14:22:00,
2013-12-22 09:23:00,34.4,32.0,29.37,NNW,338,1.8,1.8,91,0.00,,,0.00,WUHU216HW,2013-12-22 14:23:00,
2013-12-22 09:24:00,34.4,32.0,29.37,NW,305,1.7,2.9,91,0.00,,,0.00,WUHU216HW,2013-12-22 14:24:00,
2013-12-22 09:26:00,34.4,32.0,29.36,WNW,302,1.1,2.9,91,0.00,,,0.00,WUHU216HW,2013-12-22 14:26:00,
2013-12-22 09:27:00,34.4,32.0,29.36,NW,312,0.9,2.9,91,0.00,,,0.00,WUHU216HW,2013-12-22 14:27:00,
2013-12-22 09:28:00,34.4,32.0,29.36,NW,315,1.0,2.9,91,0.00,,,0.00,WUHU216HW,2013-12-22 14:28:00,
2013-12-22 09:30:00,34.6,32.1,29.37,WNW,293,0.4,2.9,91,0.00,,,0.00,WUHU216HW,2013-12-22 14:30:00,
2013-12-22 09:31:00,34.4,32.0,29.37,WSW,248,1.1,2.9,91,0.00,,,0.00,WUHU216HW,2013-12-22 14:31:00,
2013-12-22 09:32:00,34.6,32.1,29.37,WSW,248,1.1,2.9,91,0.00,,,0.00,WUHU216HW,2013-12-22 14:32:00,
2013-12-22 09:33:00,34.6,32.1,29.37,WSW,248,1.1,2.9,91,0.00,,,0.00,WUHU216HW,2013-12-22 14:33:00,
2013-12-22 09:34:00,34.6,32.1,29.37,WSW,248,0.9,1.8,91,0.00,,,0.00,WUHU216HW,2013-12-22 14:34:00,
2013-12-22 09:35:00,34.6,32.1,29.38,WSW,248,0.4,1.8,91,0.00,,,0.00,WUHU216HW,2013-12-22 14:35:00,
2013-12-22 09:36:00,34.6,32.1,29.38,WSW,248,0.4,1.8,91,0.00,,,0.00,WUHU216HW,2013-12-22 14:36:00,
2013-12-22 09:37:00,34.7,32.3,29.38,WSW,248,0.2,1.8,91,0.00,,,0.00,WUHU216HW,2013-12-22 14:37:00,
2013-12-22 09:38:00,34.7,32.3,29.38,SW,225,0.7,1.8,91,0.00,,,0.00,WUHU216HW,2013-12-22 14:38:00,
2013-12-22 09:39:00,34.7,32.3,29.38,SW,225,1.1,1.8,91,0.00,,,0.00,WUHU216HW,2013-12-22 14:39:00,
2013-12-22 09:41:00,34.7,32.3,29.38,SW,225,0.6,1.6,91,0.00,,,0.00,WUHU216HW,2013-12-22 14:41:00,
2013-12-22 09:43:00,34.7,32.3,29.38,SW,225,0.7,1.6,91,0.00,,,0.00,WUHU216HW,2013-12-22 14:43:00,
2013-12-22 09:44:00,34.7,32.3,29.38,SW,225,1.1,1.6,91,0.00,,,0.00,WUHU216HW,2013-12-22 14:44:00,
2013-12-22 09:46:00,34.9,32.5,29.38,SW,225,1.1,1.6,91,0.00,,,0.00,WUHU216HW,2013-12-22 14:46:00,
2013-12-22 09:48:00,34.9,32.5,29.38,SW,225,0.9,1.6,91,0.00,,,0.00,WUHU216HW,2013-12-22 14:48:00,
2013-12-22 09:49:00,34.9,32.5,29.38,SW,225,0.6,1.3,91,0.00,,,0.00,WUHU216HW,2013-12-22 14:49:00,
2013-12-22 09:50:00,34.9,32.5,29.38,SW,225,0.5,1.3,91,0.00,,,0.00,WUHU216HW,2013-12-22 14:50:00,
2013-12-22 09:52:00,34.9,32.5,29.38,SW,225,0.3,1.3,91,0.00,,,0.00,WUHU216HW,2013-12-22 14:52:00,
2013-12-22 09:53:00,34.9,32.5,29.37,SW,225,0.0,1.3,91,0.00,,,0.00,WUHU216HW,2013-12-22 14:53:00,
2013-12-22 09:54:00,34.9,32.5,29.37,SW,225,0.2,1.3,91,0.00,,,0.00,WUHU216HW,2013-12-22 14:54:00,
2013-12-22 09:55:00,34.9,32.5,29.37,SW,225,0.2,1.3,91,0.00,,,0.00,WUHU216HW,2013-12-22 14:55:00,
2013-12-22 09:57:00,35.1,32.7,29.37,SW,225,0.9,1.1,91,0.00,,,0.00,WUHU216HW,2013-12-22 14:57:00,
2013-12-22 09:58:00,35.1,32.7,29.38,SW,225,0.7,1.1,91,0.00,,,0.00,WUHU216HW,2013-12-22 14:58:00,
2013-12-22 09:59:00,35.1,32.7,29.37,SW,225,0.5,1.1,91,0.00,,,0.00,WUHU216HW,2013-12-22 14:59:00,
2013-12-22 10:00:00,35.1,32.7,29.37,SW,225,0.9,1.1,91,0.00,,,0.00,WUHU216HW,2013-12-22 15:00:00,
2013-12-22 10:02:00,35.1,32.7,29.37,SW,225,0.5,1.1,91,0.00,,,0.00,WUHU216HW,2013-12-22 15:02:00,
2013-12-22 10:04:00,35.3,32.9,29.38,SSW,203,1.0,2.0,91,0.00,,,0.00,WUHU216HW,2013-12-22 15:04:00,
2013-12-22 10:05:00,35.3,32.9,29.38,SSW,203,0.7,2.0,91,0.00,,,0.00,WUHU216HW,2013-12-22 15:05:00,
2013-12-22 10:07:00,35.3,32.9,29.38,SSE,158,1.1,2.0,91,0.00,,,0.00,WUHU216HW,2013-12-22 15:07:00,
2013-12-22 10:09:00,35.3,32.9,29.38,SSE,158,1.1,2.0,91,0.00,,,0.00,WUHU216HW,2013-12-22 15:09:00,
2013-12-22 10:10:00,35.5,33.0,29.38,SSW,203,1.8,2.0,91,0.00,,,0.00,WUHU216HW,2013-12-22 15:10:00,
2013-12-22 10:12:00,35.5,33.0,29.38,SSW,212,1.6,2.2,91,0.00,,,0.00,WUHU216HW,2013-12-22 15:12:00,
2013-12-22 10:14:00,35.5,33.0,29.39,SSW,203,2.5,2.9,91,0.00,,,0.00,WUHU216HW,2013-12-22 15:14:00,
2013-12-22 10:15:00,35.3,32.9,29.39,South,181,2.1,2.9,91,0.00,,,0.00,WUHU216HW,2013-12-22 15:15:00,
2013-12-22 10:16:00,35.5,33.0,29.39,South,179,2.2,2.9,91,0.00,,,0.00,WUHU216HW,2013-12-22 15:16:00,
2013-12-22 10:17:00,35.3,32.9,29.38,SSW,203,1.8,2.9,91,0.00,,,0.00,WUHU216HW,2013-12-22 15:17:00,
2013-12-22 10:19:00,35.3,32.9,29.39,SSW,195,1.5,2.9,91,0.00,,,0.00,WUHU216HW,2013-12-22 15:19:00,
2013-12-22 10:20:00,35.5,33.0,29.39,South,180,2.2,2.9,91,0.00,,,0.00,WUHU216HW,2013-12-22 15:20:00,
2013-12-22 10:21:00,35.3,32.9,29.39,South,180,2.2,2.9,91,0.00,,,0.00,WUHU216HW,2013-12-22 15:21:00,
2013-12-22 10:22:00,35.3,32.9,29.39,SW,225,3.4,4.0,91,0.00,,,0.00,WUHU216HW,2013-12-22 15:22:00,
2013-12-22 10:25:00,35.3,32.9,29.40,SSW,203,3.6,4.0,91,0.00,,,0.00,WUHU216HW,2013-12-22 15:25:00,
2013-12-22 10:26:00,35.3,32.9,29.40,SSW,199,3.0,4.0,91,0.00,,,0.00,WUHU216HW,2013-12-22 15:26:00,
2013-12-22 10:27:00,35.3,32.9,29.40,SW,221,1.6,4.0,91,0.00,,,0.00,WUHU216HW,2013-12-22 15:27:00,
2013-12-22 10:28:00,35.3,32.9,29.40,SW,233,1.1,4.0,91,0.00,,,0.00,WUHU216HW,2013-12-22 15:28:00,
2013-12-22 10:30:00,35.3,32.9,29.40,SSW,211,1.6,4.0,91,0.00,,,0.00,WUHU216HW,2013-12-22 15:30:00,
2013-12-22 10:31:00,35.3,32.9,29.40,SSW,203,1.8,4.0,91,0.00,,,0.00,WUHU216HW,2013-12-22 15:31:00,
2013-12-22 10:32:00,35.3,32.9,29.40,SW,231,2.4,5.4,91,0.00,,,0.00,WUHU216HW,2013-12-22 15:32:00,
2013-12-22 10:33:00,35.3,32.9,29.40,SW,233,2.4,5.4,91,0.00,,,0.00,WUHU216HW,2013-12-22 15:33:00,
2013-12-22 10:35:00,35.3,32.9,29.40,SW,225,3.4,5.4,91,0.00,,,0.00,WUHU216HW,2013-12-22 15:35:00,
2013-12-22 10:36:00,35.3,32.9,29.40,SW,230,3.0,5.4,91,0.00,,,0.00,WUHU216HW,2013-12-22 15:36:00,
2013-12-22 10:37:00,35.3,32.9,29.41,WSW,248,3.4,5.4,91,0.00,,,0.00,WUHU216HW,2013-12-22 15:37:00,
2013-12-22 10:38:00,35.3,32.9,29.40,WSW,248,2.9,5.4,91,0.00,,,0.00,WUHU216HW,2013-12-22 15:38:00,
2013-12-22 10:40:00,35.3,32.9,29.41,WSW,249,3.2,5.4,91,0.00,,,0.00,WUHU216HW,2013-12-22 15:40:00,
2013-12-22 10:42:00,35.5,33.0,29.41,WSW,242,3.3,5.4,91,0.00,,,0.00,WUHU216HW,2013-12-22 15:42:00,
2013-12-22 10:43:00,35.6,33.2,29.41,West,270,3.4,4.0,91,0.00,,,0.00,WUHU216HW,2013-12-22 15:43:00,
2013-12-22 10:44:00,35.6,33.2,29.41,SW,233,3.6,4.7,91,0.00,,,0.00,WUHU216HW,2013-12-22 15:44:00,
2013-12-22 10:45:00,35.6,33.5,29.41,SW,225,3.3,4.7,92,0.00,,,0.00,WUHU216HW,2013-12-22 15:45:00,
2013-12-22 10:47:00,35.6,33.2,29.41,WSW,248,2.9,4.7,91,0.00,,,0.00,WUHU216HW,2013-12-22 15:47:00,
2013-12-22 10:49:00,35.6,33.5,29.41,SW,232,4.0,5.1,92,0.00,,,0.00,WUHU216HW,2013-12-22 15:49:00,
2013-12-22 10:51:00,35.8,33.7,29.42,SW,227,3.2,5.6,92,0.00,,,0.00,WUHU216HW,2013-12-22 15:51:00,
2013-12-22 10:52:00,35.8,33.7,29.42,WSW,248,4.7,5.6,92,0.00,,,0.00,WUHU216HW,2013-12-22 15:52:00,
2013-12-22 10:53:00,36.0,33.8,29.42,WSW,242,3.8,5.6,92,0.00,,,0.00,WUHU216HW,2013-12-22 15:53:00,
2013-12-22 10:54:00,36.0,33.8,29.42,SW,233,2.9,5.6,92,0.00,,,0.00,WUHU216HW,2013-12-22 15:54:00,
2013-12-22 10:55:00,36.0,33.8,29.41,West,270,6.0,6.0,92,0.00,,,0.00,WUHU216HW,2013-12-22 15:55:00,
2013-12-22 10:56:00,36.0,33.8,29.41,WSW,248,3.6,6.0,92,0.00,,,0.00,WUHU216HW,2013-12-22 15:56:00,
2013-12-22 10:57:00,36.0,33.8,29.42,WSW,248,6.3,6.3,92,0.00,,,0.00,WUHU216HW,2013-12-22 15:57:00,
2013-12-22 10:58:00,36.0,33.8,29.42,WSW,243,4.8,6.7,92,0.00,,,0.00,WUHU216HW,2013-12-22 15:58:00,
2013-12-22 10:59:00,36.0,33.8,29.42,WSW,248,6.5,6.7,92,0.00,,,0.00,WUHU216HW,2013-12-22 15:59:00,
2013-12-22 11:00:00,36.2,34.0,29.42,WSW,246,5.6,6.7,92,0.00,,,0.00,WUHU216HW,2013-12-22 16:00:00,
2013-12-22 11:02:00,36.2,34.0,29.42,SW,235,6.4,9.2,92,0.00,,,0.00,WUHU216HW,2013-12-22 16:02:00,
2013-12-22 11:03:00,36.4,34.2,29.42,WSW,248,6.9,9.2,92,0.00,,,0.00,WUHU216HW,2013-12-22 16:03:00,
2013-12-22 11:04:00,36.2,34.0,29.42,WSW,242,4.9,9.2,92,0.00,,,0.00,WUHU216HW,2013-12-22 16:04:00,
2013-12-22 11:05:00,36.4,34.2,29.42,WSW,248,7.2,9.2,92,0.00,,,0.00,WUHU216HW,2013-12-22 16:05:00,
2013-12-22 11:07:00,36.4,34.2,29.42,SW,225,6.9,9.2,92,0.00,,,0.00,WUHU216HW,2013-12-22 16:07:00,
2013-12-22 11:08:00,36.4,34.2,29.42,SW,225,6.5,9.2,92,0.00,,,0.00,WUHU216HW,2013-12-22 16:08:00,
2013-12-22 11:09:00,36.4,34.2,29.42,WSW,248,6.3,9.2,92,0.00,,,0.00,WUHU216HW,2013-12-22 16:09:00,
2013-12-22 11:10:00,36.4,34.2,29.42,WSW,248,5.8,9.2,92,0.00,,,0.00,WUHU216HW,2013-12-22 16:10:00,
2013-12-22 11:12:00,36.5,34.4,29.42,WSW,248,5.8,10.5,92,0.00,,,0.00,WUHU216HW,2013-12-22 16:12:00,
2013-12-22 11:13:00,36.5,34.4,29.42,WSW,248,5.1,10.5,92,0.00,,,0.00,WUHU216HW,2013-12-22 16:13:00,
2013-12-22 11:14:00,36.5,34.4,29.42,SW,225,6.5,10.5,92,0.00,,,0.00,WUHU216HW,2013-12-22 16:14:00,
2013-12-22 11:15:00,36.7,34.6,29.42,WSW,248,7.4,10.5,92,0.00,,,0.00,WUHU216HW,2013-12-22 16:15:00,
2013-12-22 11:16:00,36.7,34.6,29.42,WSW,248,9.4,10.5,92,0.00,,,0.00,WUHU216HW,2013-12-22 16:16:00,
2013-12-22 11:18:00,36.7,34.6,29.42,WSW,248,8.2,12.1,92,0.00,,,0.00,WUHU216HW,2013-12-22 16:18:00,
2013-12-22 11:19:00,36.9,34.7,29.42,WSW,250,8.1,12.1,92,0.00,,,0.00,WUHU216HW,2013-12-22 16:19:00,
2013-12-22 11:20:00,36.9,34.7,29.42,SW,236,6.8,12.1,92,0.00,,,0.00,WUHU216HW,2013-12-22 16:20:00,
2013-12-22 11:21:00,36.9,34.7,29.42,SW,225,8.7,12.1,92,0.00,,,0.00,WUHU216HW,2013-12-22 16:21:00,
2013-12-22 11:23:00,37.1,34.9,29.43,SW,225,6.9,12.1,92,0.00,,,0.00,WUHU216HW,2013-12-22 16:23:00,
2013-12-22 11:24:00,37.1,34.9,29.43,West,270,9.8,12.1,92,0.00,,,0.00,WUHU216HW,2013-12-22 16:24:00,
2013-12-22 11:25:00,37.1,34.9,29.43,WSW,248,8.5,12.1,92,0.00,,,0.00,WUHU216HW,2013-12-22 16:25:00,
2013-12-22 11:26:00,37.1,34.9,29.42,WSW,248,9.8,12.1,92,0.00,,,0.00,WUHU216HW,2013-12-22 16:26:00,
2013-12-22 11:28:00,37.3,35.1,29.42,WSW,255,11.7,15.0,92,0.00,,,0.00,WUHU216HW,2013-12-22 16:28:00,
2013-12-22 11:29:00,37.3,35.1,29.42,WSW,239,12.2,15.0,92,0.00,,,0.00,WUHU216HW,2013-12-22 16:29:00,
2013-12-22 11:30:00,37.4,35.3,29.42,WSW,245,11.3,15.0,92,0.00,,,0.00,WUHU216HW,2013-12-22 16:30:00,
2013-12-22 11:31:00,37.4,35.3,29.42,WSW,250,7.5,15.0,92,0.00,,,0.00,WUHU216HW,2013-12-22 16:31:00,
2013-12-22 11:33:00,37.6,35.5,29.42,WSW,242,8.2,15.0,92,0.00,,,0.00,WUHU216HW,2013-12-22 16:33:00,
2013-12-22 11:34:00,37.6,35.5,29.42,WSW,244,8.5,15.0,92,0.00,,,0.00,WUHU216HW,2013-12-22 16:34:00,
2013-12-22 11:35:00,37.6,35.5,29.42,WSW,248,8.9,15.0,92,0.00,,,0.00,WUHU216HW,2013-12-22 16:35:00,
2013-12-22 11:36:00,37.6,35.5,29.42,West,270,9.4,15.0,92,0.00,,,0.00,WUHU216HW,2013-12-22 16:36:00,
2013-12-22 11:37:00,37.8,35.6,29.42,West,269,7.9,15.0,92,0.00,,,0.00,WUHU216HW,2013-12-22 16:37:00,
2013-12-22 11:39:00,37.8,35.6,29.42,WSW,247,7.7,12.3,92,0.00,,,0.00,WUHU216HW,2013-12-22 16:39:00,
2013-12-22 11:40:00,37.8,35.6,29.42,WSW,248,11.2,12.3,92,0.00,,,0.00,WUHU216HW,2013-12-22 16:40:00,
2013-12-22 11:41:00,38.0,35.8,29.42,SW,225,9.4,12.3,92,0.00,,,0.00,WUHU216HW,2013-12-22 16:41:00,
2013-12-22 11:42:00,38.2,36.0,29.42,WSW,238,10.0,14.8,92,0.00,,,0.00,WUHU216HW,2013-12-22 16:42:00,
2013-12-22 11:44:00,38.2,36.0,29.42,WSW,239,8.2,14.8,92,0.00,,,0.00,WUHU216HW,2013-12-22 16:44:00,
2013-12-22 11:45:00,38.2,36.0,29.42,WNW,293,8.1,14.8,92,0.00,,,0.00,WUHU216HW,2013-12-22 16:45:00,
2013-12-22 11:46:00,38.3,36.2,29.42,WSW,248,13.9,14.8,92,0.00,,,0.00,WUHU216HW,2013-12-22 16:46:00,
2013-12-22 11:48:00,38.5,36.4,29.42,WSW,239,12.7,16.6,92,0.00,,,0.00,WUHU216HW,2013-12-22 16:48:00,
2013-12-22 11:49:00,38.5,36.4,29.42,WSW,241,11.6,16.6,92,0.00,,,0.00,WUHU216HW,2013-12-22 16:49:00,
2013-12-22 11:50:00,38.5,36.4,29.42,WSW,248,11.4,16.6,92,0.00,,,0.00,WUHU216HW,2013-12-22 16:50:00,
2013-12-22 11:51:00,38.7,36.5,29.43,WSW,245,11.0,16.6,92,0.00,,,0.00,WUHU216HW,2013-12-22 16:51:00,
2013-12-22 11:53:00,38.7,36.5,29.42,WSW,249,9.9,16.6,92,0.00,,,0.00,WUHU216HW,2013-12-22 16:53:00,
2013-12-22 11:54:00,38.9,36.5,29.43,WSW,238,9.2,16.6,91,0.00,,,0.00,WUHU216HW,2013-12-22 16:54:00,
2013-12-22 11:55:00,38.9,36.5,29.42,SW,226,8.4,16.6,91,0.00,,,0.00,WUHU216HW,2013-12-22 16:55:00,
2013-12-22 11:58:00,38.9,36.2,29.42,WSW,248,11.6,14.5,90,0.00,,,0.00,WUHU216HW,2013-12-22 16:58:00,
2013-12-22 11:59:00,39.1,36.6,29.42,WSW,250,11.1,14.5,91,0.00,,,0.00,WUHU216HW,2013-12-22 16:59:00,
2013-12-22 12:00:00,39.1,36.6,29.42,WSW,248,14.5,14.5,91,0.00,,,0.00,WUHU216HW,2013-12-22 17:00:00,
2013-12-22 12:03:00,39.2,36.5,29.42,WSW,248,11.0,14.5,90,0.00,,,0.00,WUHU216HW,2013-12-22 17:03:00,
2013-12-22 12:04:00,39.2,36.5,29.42,West,264,12.0,14.5,90,0.00,,,0.00,WUHU216HW,2013-12-22 17:04:00,
2013-12-22 12:05:00,39.2,36.5,29.42,WSW,248,10.5,14.5,90,0.00,,,0.00,WUHU216HW,2013-12-22 17:05:00,
2013-12-22 12:06:00,39.2,36.5,29.42,SW,225,12.1,15.2,90,0.00,,,0.00,WUHU216HW,2013-12-22 17:06:00,
2013-12-22 12:08:00,39.2,36.5,29.42,SW,235,10.5,15.2,90,0.00,,,0.00,WUHU216HW,2013-12-22 17:08:00,
2013-12-22 12:09:00,39.2,36.5,29.42,SW,234,9.3,15.2,90,0.00,,,0.00,WUHU216HW,2013-12-22 17:09:00,
2013-12-22 12:10:00,39.4,36.5,29.42,SSW,203,10.5,15.2,89,0.00,,,0.00,WUHU216HW,2013-12-22 17:10:00,
2013-12-22 12:11:00,39.4,36.5,29.42,WSW,243,10.2,15.2,89,0.00,,,0.00,WUHU216HW,2013-12-22 17:11:00,
2013-12-22 12:13:00,39.4,36.5,29.42,SW,225,14.1,15.2,89,0.00,,,0.00,WUHU216HW,2013-12-22 17:13:00,
2013-12-22 12:14:00,39.4,36.5,29.42,WSW,242,11.9,15.2,89,0.00,,,0.00,WUHU216HW,2013-12-22 17:14:00,
2013-12-22 12:16:00,39.4,36.2,29.43,WSW,248,15.0,15.2,88,0.00,,,0.00,WUHU216HW,2013-12-22 17:16:00,
2013-12-22 12:18:00,39.4,35.8,29.43,West,270,15.7,17.9,87,0.00,,,0.00,WUHU216HW,2013-12-22 17:18:00,
2013-12-22 12:19:00,39.4,35.8,29.43,WSW,251,16.1,20.6,87,0.00,,,0.00,WUHU216HW,2013-12-22 17:19:00,
2013-12-22 12:20:00,39.4,35.8,29.43,WSW,251,15.8,20.6,87,0.00,,,0.00,WUHU216HW,2013-12-22 17:20:00,
2013-12-22 12:21:00,39.6,36.0,29.43,WSW,243,13.5,20.6,87,0.00,,,0.00,WUHU216HW,2013-12-22 17:21:00,
2013-12-22 12:24:00,39.6,36.0,29.43,WSW,244,11.5,20.6,87,0.00,,,0.00,WUHU216HW,2013-12-22 17:24:00,
2013-12-22 12:25:00,39.6,36.0,29.43,West,270,12.8,20.6,87,0.00,,,0.00,WUHU216HW,2013-12-22 17:25:00,
2013-12-22 12:26:00,39.6,36.0,29.43,WSW,253,12.4,20.6,87,0.00,,,0.00,WUHU216HW,2013-12-22 17:26:00,
2013-12-22 12:27:00,39.6,36.0,29.43,WSW,248,13.2,20.6,87,0.00,,,0.00,WUHU216HW,2013-12-22 17:27:00,
2013-12-22 12:29:00,39.6,36.0,29.43,West,270,11.9,16.6,87,0.00,,,0.00,WUHU216HW,2013-12-22 17:29:00,
2013-12-22 12:30:00,39.6,36.0,29.44,SW,225,9.8,16.6,87,0.00,,,0.00,WUHU216HW,2013-12-22 17:30:00,
2013-12-22 12:31:00,39.6,36.0,29.43,SW,225,13.0,16.6,87,0.00,,,0.00,WUHU216HW,2013-12-22 17:31:00,
2013-12-22 12:32:00,39.6,36.0,29.43,SW,229,13.3,16.6,87,0.00,,,0.00,WUHU216HW,2013-12-22 17:32:00,
2013-12-22 12:34:00,39.6,36.0,29.44,WSW,247,13.7,16.3,87,0.00,,,0.00,WUHU216HW,2013-12-22 17:34:00,
2013-12-22 12:35:00,39.6,36.0,29.43,WSW,255,13.7,16.3,87,0.00,,,0.00,WUHU216HW,2013-12-22 17:35:00,
2013-12-22 12:36:00,39.6,36.0,29.43,SW,225,16.3,17.7,87,0.00,,,0.00,WUHU216HW,2013-12-22 17:36:00,
2013-12-22 12:37:00,39.6,36.0,29.43,WSW,243,15.0,17.7,87,0.00,,,0.00,WUHU216HW,2013-12-22 17:37:00,
2013-12-22 12:39:00,39.6,35.7,29.43,WSW,239,16.8,20.1,86,0.00,,,0.00,WUHU216HW,2013-12-22 17:39:00,
2013-12-22 12:40:00,39.6,35.7,29.43,WSW,245,14.6,20.1,86,0.00,,,0.00,WUHU216HW,2013-12-22 17:40:00,
2013-12-22 12:41:00,39.6,35.7,29.43,WSW,241,11.8,20.1,86,0.00,,,0.00,WUHU216HW,2013-12-22 17:41:00,
2013-12-22 12:42:00,39.6,35.7,29.43,West,270,11.4,20.1,86,0.00,,,0.00,WUHU216HW,2013-12-22 17:42:00,
2013-12-22 12:45:00,39.6,35.7,29.44,WSW,237,13.6,20.1,86,0.00,,,0.00,WUHU216HW,2013-12-22 17:45:00,
2013-12-22 12:46:00,39.6,35.7,29.44,WSW,243,11.5,20.1,86,0.00,,,0.00,WUHU216HW,2013-12-22 17:46:00,
2013-12-22 12:48:00,39.6,35.7,29.44,WSW,253,12.2,20.1,86,0.00,,,0.00,WUHU216HW,2013-12-22 17:48:00,
2013-12-22 12:50:00,39.6,35.7,29.44,WSW,247,13.1,19.0,86,0.00,,,0.00,WUHU216HW,2013-12-22 17:50:00,
2013-12-22 12:51:00,39.6,35.7,29.44,SW,236,13.7,19.0,86,0.00,,,0.00,WUHU216HW,2013-12-22 17:51:00,
2013-12-22 12:52:00,39.6,35.7,29.44,SW,236,10.9,19.0,86,0.00,,,0.00,WUHU216HW,2013-12-22 17:52:00,
2013-12-22 12:53:00,39.6,35.7,29.44,WSW,246,11.7,19.0,86,0.00,,,0.00,WUHU216HW,2013-12-22 17:53:00,
2013-12-22 12:55:00,39.6,35.7,29.44,WSW,258,14.3,22.4,86,0.00,,,0.00,WUHU216HW,2013-12-22 17:55:00,
2013-12-22 12:56:00,39.6,35.7,29.44,WSW,255,13.8,22.4,86,0.00,,,0.00,WUHU216HW,2013-12-22 17:56:00,
2013-12-22 12:57:00,39.8,35.9,29.45,WSW,248,16.8,22.4,86,0.00,,,0.00,WUHU216HW,2013-12-22 17:57:00,
2013-12-22 12:59:00,39.8,35.9,29.45,WSW,247,12.5,22.4,86,0.00,,,0.00,WUHU216HW,2013-12-22 17:59:00,
2013-12-22 13:01:00,39.8,35.9,29.45,WSW,248,11.9,22.4,86,0.00,,,0.00,WUHU216HW,2013-12-22 18:01:00,
2013-12-22 13:02:00,39.8,35.9,29.45,WSW,248,15.7,22.4,86,0.00,,,0.00,WUHU216HW,2013-12-22 18:02:00,
2013-12-22 13:04:00,39.8,35.9,29.45,SW,233,13.7,22.4,86,0.00,,,0.00,WUHU216HW,2013-12-22 18:04:00,
2013-12-22 13:06:00,39.8,35.9,29.45,WSW,250,11.9,20.4,86,0.00,,,0.00,WUHU216HW,2013-12-22 18:06:00,
2013-12-22 13:07:00,39.8,35.9,29.45,WSW,254,10.3,20.4,86,0.00,,,0.00,WUHU216HW,2013-12-22 18:07:00,
2013-12-22 13:08:00,39.8,35.9,29.46,WSW,248,14.5,20.4,86,0.00,,,0.00,WUHU216HW,2013-12-22 18:08:00,
2013-12-22 13:09:00,39.8,35.9,29.46,WSW,250,11.6,20.4,86,0.00,,,0.00,WUHU216HW,2013-12-22 18:09:00,
2013-12-22 13:11:00,39.8,35.9,29.46,WSW,248,13.9,20.4,86,0.00,,,0.00,WUHU216HW,2013-12-22 18:11:00,
2013-12-22 13:12:00,39.8,35.9,29.46,WSW,248,10.6,16.3,86,0.00,,,0.00,WUHU216HW,2013-12-22 18:12:00,
2013-12-22 13:13:00,39.8,35.9,29.46,WSW,248,9.9,15.4,86,0.00,,,0.00,WUHU216HW,2013-12-22 18:13:00,
2013-12-22 13:14:00,39.8,35.9,29.46,WSW,248,9.8,15.4,86,0.00,,,0.00,WUHU216HW,2013-12-22 18:14:00,
2013-12-22 13:16:00,39.8,35.9,29.46,WSW,248,14.3,15.4,86,0.00,,,0.00,WUHU216HW,2013-12-22 18:16:00,
2013-12-22 13:17:00,39.8,35.9,29.46,WSW,248,10.7,15.4,86,0.00,,,0.00,WUHU216HW,2013-12-22 18:17:00,
2013-12-22 13:18:00,39.8,35.9,29.46,WSW,248,16.6,16.6,86,0.00,,,0.00,WUHU216HW,2013-12-22 18:18:00,
2013-12-22 13:19:00,39.8,35.9,29.46,WSW,250,9.7,16.6,86,0.00,,,0.00,WUHU216HW,2013-12-22 18:19:00,
2013-12-22 13:22:00,40.0,36.1,29.47,WSW,253,13.6,16.8,86,0.00,,,0.00,WUHU216HW,2013-12-22 18:22:00,
2013-12-22 13:23:00,40.0,36.1,29.47,SW,226,10.7,16.8,86,0.00,,,0.00,WUHU216HW,2013-12-22 18:23:00,
2013-12-22 13:24:00,40.0,36.1,29.47,WSW,248,10.7,16.8,86,0.00,,,0.00,WUHU216HW,2013-12-22 18:24:00,
2013-12-22 13:27:00,40.0,35.8,29.47,WSW,248,12.8,20.4,85,0.00,,,0.00,WUHU216HW,2013-12-22 18:27:00,
2013-12-22 13:28:00,40.0,35.8,29.47,WSW,248,12.5,20.4,85,0.00,,,0.00,WUHU216HW,2013-12-22 18:28:00,
2013-12-22 13:29:00,40.0,35.8,29.47,WSW,255,12.0,20.4,85,0.00,,,0.00,WUHU216HW,2013-12-22 18:29:00,
2013-12-22 13:32:00,40.0,35.8,29.47,West,270,13.0,20.4,85,0.00,,,0.00,WUHU216HW,2013-12-22 18:32:00,
2013-12-22 13:33:00,40.0,35.8,29.47,WSW,243,12.8,20.4,85,0.00,,,0.00,WUHU216HW,2013-12-22 18:33:00,
2013-12-22 13:34:00,40.0,35.5,29.47,SW,225,13.2,20.4,84,0.00,,,0.00,WUHU216HW,2013-12-22 18:34:00,
2013-12-22 13:37:00,40.0,35.5,29.47,WSW,257,12.6,15.9,84,0.00,,,0.00,WUHU216HW,2013-12-22 18:37:00,
2013-12-22 13:38:00,40.0,35.5,29.47,West,261,12.1,15.9,84,0.00,,,0.00,WUHU216HW,2013-12-22 18:38:00,
2013-12-22 13:39:00,40.1,35.6,29.47,WSW,256,10.3,15.7,84,0.00,,,0.00,WUHU216HW,2013-12-22 18:39:00,
2013-12-22 13:42:00,40.0,35.5,29.47,NNW,338,13.9,15.2,84,0.00,,,0.00,WUHU216HW,2013-12-22 18:42:00,
2013-12-22 13:43:00,40.0,35.5,29.47,SW,225,19.7,19.7,84,0.00,,,0.00,WUHU216HW,2013-12-22 18:43:00,
2013-12-22 13:44:00,40.0,35.5,29.48,WSW,240,12.7,19.7,84,0.00,,,0.00,WUHU216HW,2013-12-22 18:44:00,
2013-12-22 13:45:00,40.0,35.5,29.48,West,270,11.9,19.7,84,0.00,,,0.00,WUHU216HW,2013-12-22 18:45:00,
2013-12-22 13:47:00,40.0,35.5,29.48,WSW,258,9.1,19.7,84,0.00,,,0.00,WUHU216HW,2013-12-22 18:47:00,
2013-12-22 13:48:00,40.1,35.6,29.48,West,270,9.2,19.7,84,0.00,,,0.00,WUHU216HW,2013-12-22 18:48:00,
2013-12-22 13:49:00,40.1,35.6,29.48,WSW,253,9.0,19.7,84,0.00,,,0.00,WUHU216HW,2013-12-22 18:49:00,
2013-12-22 13:50:00,40.1,35.6,29.48,SSW,203,10.1,19.7,84,0.00,,,0.00,WUHU216HW,2013-12-22 18:50:00,
2013-12-22 13:52:00,40.1,35.6,29.48,WSW,248,13.6,19.7,84,0.00,,,0.00,WUHU216HW,2013-12-22 18:52:00,
2013-12-22 13:53:00,40.3,35.6,29.48,WSW,253,10.2,15.9,83,0.00,,,0.00,WUHU216HW,2013-12-22 18:53:00,
2013-12-22 13:54:00,40.3,35.6,29.48,WSW,252,10.1,15.9,83,0.00,,,0.00,WUHU216HW,2013-12-22 18:54:00,
2013-12-22 13:55:00,40.3,35.6,29.48,WSW,248,17.9,17.9,83,0.00,,,0.00,WUHU216HW,2013-12-22 18:55:00,
2013-12-22 13:58:00,40.3,35.2,29.48,WSW,248,16.8,17.9,82,0.00,,,0.00,WUHU216HW,2013-12-22 18:58:00,
2013-12-22 13:59:00,40.3,35.6,29.48,WSW,248,15.9,17.9,83,0.00,,,0.00,WUHU216HW,2013-12-22 18:59:00,
2013-12-22 14:00:00,40.3,35.6,29.48,West,270,13.9,17.9,83,0.00,,,0.00,WUHU216HW,2013-12-22 19:00:00,
2013-12-22 14:03:00,40.3,35.2,29.48,West,259,12.4,17.9,82,0.00,,,0.00,WUHU216HW,2013-12-22 19:03:00,
2013-12-22 14:04:00,40.5,35.7,29.48,WSW,257,10.7,17.9,83,0.00,,,0.00,WUHU216HW,2013-12-22 19:04:00,
2013-12-22 14:05:00,40.5,35.7,29.48,WSW,248,15.2,17.9,83,0.00,,,0.00,WUHU216HW,2013-12-22 19:05:00,
2013-12-22 14:06:00,40.5,35.4,29.48,WSW,251,14.2,21.5,82,0.00,,,0.00,WUHU216HW,2013-12-22 19:06:00,
2013-12-22 14:08:00,40.3,35.2,29.48,SW,225,15.7,21.5,82,0.00,,,0.00,WUHU216HW,2013-12-22 19:08:00,
2013-12-22 14:09:00,40.3,35.2,29.48,SW,225,18.6,21.5,82,0.00,,,0.00,WUHU216HW,2013-12-22 19:09:00,
2013-12-22 14:10:00,40.3,35.2,29.48,SW,232,13.8,21.5,82,0.00,,,0.00,WUHU216HW,2013-12-22 19:10:00,
2013-12-22 14:11:00,40.3,35.2,29.48,SW,233,12.3,21.5,82,0.00,,,0.00,WUHU216HW,2013-12-22 19:11:00,
2013-12-22 14:13:00,40.3,35.2,29.48,WSW,243,12.6,21.5,82,0.00,,,0.00,WUHU216HW,2013-12-22 19:13:00,
2013-12-22 14:14:00,40.3,35.2,29.48,WSW,247,11.3,21.5,82,0.00,,,0.00,WUHU216HW,2013-12-22 19:14:00,
2013-12-22 14:16:00,40.3,35.2,29.48,WSW,248,13.4,18.6,82,0.00,,,0.00,WUHU216HW,2013-12-22 19:16:00,
2013-12-22 14:18:00,40.3,35.2,29.48,WSW,248,14.1,18.6,82,0.00,,,0.00,WUHU216HW,2013-12-22 19:18:00,
2013-12-22 14:19:00,40.3,35.2,29.49,WSW,248,12.2,18.6,82,0.00,,,0.00,WUHU216HW,2013-12-22 19:19:00,
2013-12-22 14:21:00,40.3,35.2,29.49,WSW,248,16.3,17.2,82,0.00,,,0.00,WUHU216HW,2013-12-22 19:21:00,
2013-12-22 14:22:00,40.3,35.2,29.49,WSW,246,14.0,17.2,82,0.00,,,0.00,WUHU216HW,2013-12-22 19:22:00,
2013-12-22 14:23:00,40.3,35.2,29.49,WSW,246,11.3,17.2,82,0.00,,,0.00,WUHU216HW,2013-12-22 19:23:00,
2013-12-22 14:24:00,40.3,35.2,29.49,West,270,16.3,17.2,82,0.00,,,0.00,WUHU216HW,2013-12-22 19:24:00,
2013-12-22 14:26:00,40.3,35.2,29.49,WSW,252,11.9,17.2,82,0.00,,,0.00,WUHU216HW,2013-12-22 19:26:00,
2013-12-22 14:27:00,40.1,35.4,29.49,WSW,248,10.7,17.2,83,0.00,,,0.00,WUHU216HW,2013-12-22 19:27:00,
2013-12-22 14:28:00,40.3,35.6,29.49,WSW,248,13.4,16.8,83,0.00,,,0.00,WUHU216HW,2013-12-22 19:28:00,
2013-12-22 14:29:00,40.3,35.6,29.49,SW,225,12.3,16.8,83,0.00,,,0.00,WUHU216HW,2013-12-22 19:29:00,
2013-12-22 14:31:00,40.1,35.1,29.50,WSW,240,11.3,16.8,82,0.00,,,0.00,WUHU216HW,2013-12-22 19:31:00,
2013-12-22 14:32:00,40.1,35.1,29.50,WSW,248,11.2,16.3,82,0.00,,,0.00,WUHU216HW,2013-12-22 19:32:00,
2013-12-22 14:33:00,40.1,35.1,29.50,WNW,293,11.6,16.3,82,0.00,,,0.00,WUHU216HW,2013-12-22 19:33:00,
2013-12-22 14:34:00,40.1,35.1,29.50,West,259,11.4,16.3,82,0.00,,,0.00,WUHU216HW,2013-12-22 19:34:00,
2013-12-22 14:37:00,40.1,35.1,29.50,WSW,250,7.1,15.7,82,0.00,,,0.00,WUHU216HW,2013-12-22 19:37:00,
2013-12-22 14:38:00,40.1,35.1,29.49,West,264,6.3,15.7,82,0.00,,,0.00,WUHU216HW,2013-12-22 19:38:00,
2013-12-22 14:39:00,40.0,34.9,29.49,WNW,285,7.2,15.7,82,0.00,,,0.00,WUHU216HW,2013-12-22 19:39:00,
2013-12-22 14:42:00,40.0,34.9,29.50,WSW,248,11.0,14.1,82,0.00,,,0.00,WUHU216HW,2013-12-22 19:42:00,
2013-12-22 14:43:00,40.0,34.9,29.50,SW,225,10.3,14.3,82,0.00,,,0.00,WUHU216HW,2013-12-22 19:43:00,
2013-12-22 14:44:00,40.0,34.9,29.50,WSW,245,10.1,14.3,82,0.00,,,0.00,WUHU216HW,2013-12-22 19:44:00,
2013-12-22 14:45:00,40.0,34.9,29.50,WNW,293,10.7,14.3,82,0.00,,,0.00,WUHU216HW,2013-12-22 19:45:00,
2013-12-22 14:47:00,40.0,34.9,29.50,WSW,248,10.5,14.3,82,0.00,,,0.00,WUHU216HW,2013-12-22 19:47:00,
2013-12-22 14:48:00,40.0,34.9,29.50,WSW,248,7.8,14.3,82,0.00,,,0.00,WUHU216HW,2013-12-22 19:48:00,
2013-12-22 14:49:00,39.8,34.8,29.50,West,263,9.3,15.0,82,0.00,,,0.00,WUHU216HW,2013-12-22 19:49:00,
2013-12-22 14:50:00,39.8,34.8,29.50,West,270,9.6,15.0,82,0.00,,,0.00,WUHU216HW,2013-12-22 19:50:00,
2013-12-22 14:53:00,39.8,34.8,29.50,West,270,12.1,15.9,82,0.00,,,0.00,WUHU216HW,2013-12-22 19:53:00,
2013-12-22 14:54:00,39.8,34.8,29.51,West,273,9.8,15.9,82,0.00,,,0.00,WUHU216HW,2013-12-22 19:54:00,
2013-12-22 14:55:00,39.8,34.8,29.51,West,270,9.6,15.9,82,0.00,,,0.00,WUHU216HW,2013-12-22 19:55:00,
2013-12-22 14:58:00,39.8,34.8,29.51,WSW,248,7.6,15.9,82,0.00,,,0.00,WUHU216HW,2013-12-22 19:58:00,
2013-12-22 14:59:00,39.8,34.8,29.51,WSW,248,12.8,15.9,82,0.00,,,0.00,WUHU216HW,2013-12-22 19:59:00,
2013-12-22 15:00:00,39.6,34.6,29.51,WSW,245,10.3,15.9,82,0.00,,,0.00,WUHU216HW,2013-12-22 20:00:00,
2013-12-22 15:03:00,39.6,34.6,29.52,WSW,245,10.5,14.3,82,0.00,,,0.00,WUHU216HW,2013-12-22 20:03:00,
2013-12-22 15:04:00,39.6,34.6,29.52,WSW,250,11.4,14.3,82,0.00,,,0.00,WUHU216HW,2013-12-22 20:04:00,
2013-12-22 15:05:00,39.6,34.6,29.52,SW,225,13.9,14.3,82,0.00,,,0.00,WUHU216HW,2013-12-22 20:05:00,
2013-12-22 15:06:00,39.6,34.6,29.52,West,270,13.6,14.3,82,0.00,,,0.00,WUHU216HW,2013-12-22 20:06:00,
2013-12-22 15:08:00,39.6,34.6,29.52,WSW,248,15.2,15.2,82,0.00,,,0.00,WUHU216HW,2013-12-22 20:08:00,
2013-12-22 15:09:00,39.6,34.6,29.52,West,270,11.0,15.2,82,0.00,,,0.00,WUHU216HW,2013-12-22 20:09:00,
2013-12-22 15:10:00,39.6,34.6,29.52,WSW,254,10.5,15.2,82,0.00,,,0.00,WUHU216HW,2013-12-22 20:10:00,
2013-12-22 15:11:00,39.6,34.6,29.52,SW,225,13.0,15.2,82,0.00,,,0.00,WUHU216HW,2013-12-22 20:11:00,
2013-12-22 15:13:00,39.4,34.4,29.52,WSW,254,13.6,17.9,82,0.00,,,0.00,WUHU216HW,2013-12-22 20:13:00,
2013-12-22 15:14:00,39.6,34.6,29.52,WSW,254,12.6,17.9,82,0.00,,,0.00,WUHU216HW,2013-12-22 20:14:00,
2013-12-22 15:15:00,39.4,34.4,29.52,WSW,255,10.6,17.9,82,0.00,,,0.00,WUHU216HW,2013-12-22 20:15:00,
2013-12-22 15:16:00,39.4,34.4,29.52,WSW,248,8.5,17.9,82,0.00,,,0.00,WUHU216HW,2013-12-22 20:16:00,
2013-12-22 15:19:00,39.4,34.4,29.53,WSW,248,12.1,17.9,82,0.00,,,0.00,WUHU216HW,2013-12-22 20:19:00,
2013-12-22 15:20:00,39.4,34.4,29.52,WSW,256,11.5,17.9,82,0.00,,,0.00,WUHU216HW,2013-12-22 20:20:00,
2013-12-22 15:21:00,39.4,34.4,29.52,WSW,249,10.8,17.9,82,0.00,,,0.00,WUHU216HW,2013-12-22 20:21:00,
2013-12-22 15:24:00,39.2,34.2,29.52,WSW,248,10.1,14.3,82,0.00,,,0.00,WUHU216HW,2013-12-22 20:24:00,
2013-12-22 15:25:00,39.2,34.2,29.53,West,270,10.5,14.3,82,0.00,,,0.00,WUHU216HW,2013-12-22 20:25:00,
2013-12-22 15:26:00,39.2,34.2,29.53,WNW,293,11.2,14.3,82,0.00,,,0.00,WUHU216HW,2013-12-22 20:26:00,
2013-12-22 15:29:00,39.2,34.2,29.53,West,262,11.5,14.3,82,0.00,,,0.00,WUHU216HW,2013-12-22 20:29:00,
2013-12-22 15:30:00,39.2,34.2,29.53,West,259,10.4,14.3,82,0.00,,,0.00,WUHU216HW,2013-12-22 20:30:00,
2013-12-22 15:31:00,39.2,34.2,29.53,WSW,248,11.4,14.3,82,0.00,,,0.00,WUHU216HW,2013-12-22 20:31:00,
2013-12-22 15:35:00,39.2,34.2,29.53,West,271,10.2,17.4,82,0.00,,,0.00,WUHU216HW,2013-12-22 20:35:00,
2013-12-22 15:36:00,39.2,34.2,29.53,West,259,7.7,17.4,82,0.00,,,0.00,WUHU216HW,2013-12-22 20:36:00,
2013-12-22 15:40:00,39.2,33.9,29.53,West,265,11.5,17.4,81,0.00,,,0.00,WUHU216HW,2013-12-22 20:40:00,
2013-12-22 15:41:00,39.2,33.9,29.53,West,271,10.1,17.4,81,0.00,,,0.00,WUHU216HW,2013-12-22 20:41:00,
2013-12-22 15:42:00,39.4,34.1,29.53,WSW,255,7.7,17.4,81,0.00,,,0.00,WUHU216HW,2013-12-22 20:42:00,
2013-12-22 15:45:00,39.4,34.1,29.53,WSW,243,8.2,13.4,81,0.00,,,0.00,WUHU216HW,2013-12-22 20:45:00,
2013-12-22 15:46:00,39.4,34.1,29.53,SW,225,9.6,13.4,81,0.00,,,0.00,WUHU216HW,2013-12-22 20:46:00,
2013-12-22 15:47:00,39.4,34.1,29.53,WSW,248,9.8,13.4,81,0.00,,,0.00,WUHU216HW,2013-12-22 20:47:00,
2013-12-22 15:50:00,39.4,34.1,29.54,West,262,6.9,13.0,81,0.00,,,0.00,WUHU216HW,2013-12-22 20:50:00,
2013-12-22 15:51:00,39.6,34.3,29.54,West,270,10.3,13.0,81,0.00,,,0.00,WUHU216HW,2013-12-22 20:51:00,
2013-12-22 15:52:00,39.4,34.1,29.54,WSW,249,8.4,13.0,81,0.00,,,0.00,WUHU216HW,2013-12-22 20:52:00,
2013-12-22 15:56:00,39.6,34.3,29.54,WSW,248,12.8,12.8,81,0.00,,,0.00,WUHU216HW,2013-12-22 20:56:00,
2013-12-22 15:57:00,39.4,33.9,29.54,WSW,248,13.6,14.3,80,0.00,,,0.00,WUHU216HW,2013-12-22 20:57:00,
2013-12-22 16:01:00,39.4,33.9,29.55,WSW,255,7.3,14.3,80,0.00,,,0.00,WUHU216HW,2013-12-22 21:01:00,
2013-12-22 16:02:00,39.4,33.9,29.55,West,260,6.8,14.3,80,0.00,,,0.00,WUHU216HW,2013-12-22 21:02:00,
2013-12-22 16:03:00,39.4,33.9,29.55,West,270,11.9,14.3,80,0.00,,,0.00,WUHU216HW,2013-12-22 21:03:00,
2013-12-22 16:07:00,39.4,33.9,29.55,West,265,10.2,15.0,80,0.00,,,0.00,WUHU216HW,2013-12-22 21:07:00,
2013-12-22 16:08:00,39.4,33.9,29.55,West,270,12.1,15.0,80,0.00,,,0.00,WUHU216HW,2013-12-22 21:08:00,
2013-12-22 16:12:00,39.2,33.7,29.55,WSW,239,7.0,15.0,80,0.00,,,0.00,WUHU216HW,2013-12-22 21:12:00,
2013-12-22 16:13:00,39.2,33.7,29.55,West,270,7.8,15.0,80,0.00,,,0.00,WUHU216HW,2013-12-22 21:13:00,
2013-12-22 16:17:00,39.2,33.7,29.55,West,270,5.8,13.0,80,0.00,,,0.00,WUHU216HW,2013-12-22 21:17:00,
2013-12-22 16:18:00,39.2,33.9,29.55,West,264,4.8,13.0,81,0.00,,,0.00,WUHU216HW,2013-12-22 21:18:00,
2013-12-22 16:22:00,39.2,33.9,29.56,SW,225,8.5,12.1,81,0.00,,,0.00,WUHU216HW,2013-12-22 21:22:00,
2013-12-22 16:23:00,39.2,33.9,29.56,WSW,248,12.8,13.4,81,0.00,,,0.00,WUHU216HW,2013-12-22 21:23:00,
2013-12-22 16:27:00,39.1,33.8,29.56,WSW,248,13.2,13.4,81,0.00,,,0.00,WUHU216HW,2013-12-22 21:27:00,
2013-12-22 16:28:00,39.1,33.8,29.56,WSW,248,13.2,13.4,81,0.00,,,0.00,WUHU216HW,2013-12-22 21:28:00,
2013-12-22 16:29:00,39.1,33.8,29.56,WSW,246,10.6,13.4,81,0.00,,,0.00,WUHU216HW,2013-12-22 21:29:00,
2013-12-22 16:32:00,39.1,33.8,29.57,WSW,256,6.5,13.2,81,0.00,,,0.00,WUHU216HW,2013-12-22 21:32:00,
2013-12-22 16:33:00,39.1,33.8,29.57,WSW,257,6.2,13.2,81,0.00,,,0.00,WUHU216HW,2013-12-22 21:33:00,
2013-12-22 16:34:00,39.1,33.8,29.57,WSW,248,9.4,13.2,81,0.00,,,0.00,WUHU216HW,2013-12-22 21:34:00,
2013-12-22 16:38:00,38.9,33.6,29.57,WSW,248,8.9,12.1,81,0.00,,,0.00,WUHU216HW,2013-12-22 21:38:00,
2013-12-22 16:39:00,38.9,33.6,29.57,West,263,7.6,11.4,81,0.00,,,0.00,WUHU216HW,2013-12-22 21:39:00,
2013-12-22 16:40:00,38.9,33.6,29.57,SW,225,9.8,12.8,81,0.00,,,0.00,WUHU216HW,2013-12-22 21:40:00,
2013-12-22 16:43:00,38.9,33.6,29.57,WSW,240,7.6,12.8,81,0.00,,,0.00,WUHU216HW,2013-12-22 21:43:00,
2013-12-22 16:44:00,38.9,33.6,29.57,WSW,248,7.8,12.8,81,0.00,,,0.00,WUHU216HW,2013-12-22 21:44:00,
2013-12-22 16:45:00,38.9,33.6,29.58,WSW,241,6.9,12.8,81,0.00,,,0.00,WUHU216HW,2013-12-22 21:45:00,
2013-12-22 16:48:00,38.9,33.6,29.58,WSW,248,5.8,12.8,81,0.00,,,0.00,WUHU216HW,2013-12-22 21:48:00,
2013-12-22 16:49:00,38.9,33.6,29.58,WSW,248,8.1,12.8,81,0.00,,,0.00,WUHU216HW,2013-12-22 21:49:00,
2013-12-22 16:50:00,38.9,33.6,29.58,WSW,256,6.9,10.3,81,0.00,,,0.00,WUHU216HW,2013-12-22 21:50:00,
2013-12-22 16:51:00,38.9,33.6,29.58,WSW,248,7.4,10.3,81,0.00,,,0.00,WUHU216HW,2013-12-22 21:51:00,
2013-12-22 16:53:00,38.9,33.6,29.58,WSW,256,8.7,12.3,81,0.00,,,0.00,WUHU216HW,2013-12-22 21:53:00,
2013-12-22 16:54:00,38.9,33.6,29.58,WSW,252,7.6,12.3,81,0.00,,,0.00,WUHU216HW,2013-12-22 21:54:00,
2013-12-22 16:55:00,38.9,33.6,29.58,West,270,13.4,13.4,81,0.00,,,0.00,WUHU216HW,2013-12-22 21:55:00,
2013-12-22 16:56:00,38.9,33.6,29.58,West,262,8.1,13.4,81,0.00,,,0.00,WUHU216HW,2013-12-22 21:56:00,
2013-12-22 16:58:00,38.9,33.3,29.58,SW,225,8.5,13.4,80,0.00,,,0.00,WUHU216HW,2013-12-22 21:58:00,
2013-12-22 16:59:00,38.9,33.6,29.58,West,270,10.1,13.4,81,0.00,,,0.00,WUHU216HW,2013-12-22 21:59:00,
2013-12-22 17:00:00,38.9,33.6,29.58,WSW,251,6.2,13.4,81,0.00,,,0.00,WUHU216HW,2013-12-22 22:00:00,
2013-12-22 17:01:00,38.9,33.6,29.59,WSW,256,6.2,13.4,81,0.00,,,0.00,WUHU216HW,2013-12-22 22:01:00,
2013-12-22 17:03:00,38.7,33.4,29.59,WSW,244,7.8,13.4,81,0.00,,,0.00,WUHU216HW,2013-12-22 22:03:00,
2013-12-22 17:04:00,38.7,33.1,29.59,WSW,248,12.1,13.4,80,0.00,,,0.00,WUHU216HW,2013-12-22 22:04:00,
2013-12-22 17:06:00,38.7,33.1,29.59,WSW,248,11.4,13.6,80,0.00,,,0.00,WUHU216HW,2013-12-22 22:06:00,
2013-12-22 17:07:00,38.7,33.1,29.59,WSW,239,9.6,13.6,80,0.00,,,0.00,WUHU216HW,2013-12-22 22:07:00,
2013-12-22 17:08:00,38.7,33.1,29.59,WSW,248,6.3,13.6,80,0.00,,,0.00,WUHU216HW,2013-12-22 22:08:00,
2013-12-22 17:09:00,38.7,33.1,29.60,WSW,250,5.1,13.6,80,0.00,,,0.00,WUHU216HW,2013-12-22 22:09:00,
2013-12-22 17:10:00,38.7,33.1,29.60,SW,225,5.8,13.6,80,0.00,,,0.00,WUHU216HW,2013-12-22 22:10:00,
2013-12-22 17:11:00,38.7,33.1,29.60,WSW,248,8.1,13.6,80,0.00,,,0.00,WUHU216HW,2013-12-22 22:11:00,
2013-12-22 17:12:00,38.7,33.1,29.60,SW,225,8.9,13.6,80,0.00,,,0.00,WUHU216HW,2013-12-22 22:12:00,
2013-12-22 17:14:00,38.7,33.1,29.60,WSW,253,8.6,13.6,80,0.00,,,0.00,WUHU216HW,2013-12-22 22:14:00,
2013-12-22 17:15:00,38.5,32.9,29.61,SW,234,6.4,13.6,80,0.00,,,0.00,WUHU216HW,2013-12-22 22:15:00,
2013-12-22 17:16:00,38.5,32.9,29.61,WSW,248,8.7,11.4,80,0.00,,,0.00,WUHU216HW,2013-12-22 22:16:00,
2013-12-22 17:17:00,38.5,32.9,29.61,SW,225,7.6,11.0,80,0.00,,,0.00,WUHU216HW,2013-12-22 22:17:00,
2013-12-22 17:19:00,38.5,32.9,29.61,West,270,10.5,11.0,80,0.00,,,0.00,WUHU216HW,2013-12-22 22:19:00,
2013-12-22 17:20:00,38.5,32.9,29.61,West,262,8.0,11.0,80,0.00,,,0.00,WUHU216HW,2013-12-22 22:20:00,
2013-12-22 17:21:00,38.5,32.9,29.61,WSW,247,7.0,11.0,80,0.00,,,0.00,WUHU216HW,2013-12-22 22:21:00,
2013-12-22 17:22:00,38.5,32.9,29.61,SW,225,8.3,11.0,80,0.00,,,0.00,WUHU216HW,2013-12-22 22:22:00,
2013-12-22 17:24:00,38.5,32.9,29.61,WSW,248,6.9,10.5,80,0.00,,,0.00,WUHU216HW,2013-12-22 22:24:00,
2013-12-22 17:25:00,38.5,32.9,29.61,WSW,248,6.9,10.5,80,0.00,,,0.00,WUHU216HW,2013-12-22 22:25:00,
2013-12-22 17:26:00,38.5,32.9,29.61,WSW,245,6.0,10.5,80,0.00,,,0.00,WUHU216HW,2013-12-22 22:26:00,
2013-12-22 17:27:00,38.5,32.9,29.61,West,263,5.4,10.5,80,0.00,,,0.00,WUHU216HW,2013-12-22 22:27:00,
2013-12-22 17:28:00,38.5,32.9,29.61,West,268,5.4,10.5,80,0.00,,,0.00,WUHU216HW,2013-12-22 22:28:00,
2013-12-22 17:29:00,38.5,32.9,29.61,WSW,250,6.0,9.6,80,0.00,,,0.00,WUHU216HW,2013-12-22 22:29:00,
2013-12-22 17:30:00,38.5,32.9,29.61,WSW,246,5.4,9.6,80,0.00,,,0.00,WUHU216HW,2013-12-22 22:30:00,
2013-12-22 17:31:00,38.5,32.9,29.61,SW,225,5.1,8.7,80,0.00,,,0.00,WUHU216HW,2013-12-22 22:31:00,
2013-12-22 17:32:00,38.5,32.9,29.61,SW,225,4.5,8.7,80,0.00,,,0.00,WUHU216HW,2013-12-22 22:32:00,
2013-12-22 17:33:00,38.5,32.9,29.61,West,270,5.4,8.7,80,0.00,,,0.00,WUHU216HW,2013-12-22 22:33:00,
2013-12-22 17:34:00,38.5,32.9,29.61,WSW,238,4.7,8.7,80,0.00,,,0.00,WUHU216HW,2013-12-22 22:34:00,
2013-12-22 17:35:00,38.5,32.9,29.61,SW,231,4.6,8.7,80,0.00,,,0.00,WUHU216HW,2013-12-22 22:35:00,
2013-12-22 17:37:00,38.5,32.9,29.61,SW,225,7.4,8.7,80,0.00,,,0.00,WUHU216HW,2013-12-22 22:37:00,
2013-12-22 17:38:00,38.5,33.2,29.61,WSW,238,4.8,8.7,81,0.00,,,0.00,WUHU216HW,2013-12-22 22:38:00,
2013-12-22 17:39:00,38.5,33.2,29.61,WSW,248,7.2,9.2,81,0.00,,,0.00,WUHU216HW,2013-12-22 22:39:00,
2013-12-22 17:40:00,38.5,33.2,29.61,WSW,238,6.3,9.2,81,0.00,,,0.00,WUHU216HW,2013-12-22 22:40:00,
2013-12-22 17:42:00,38.5,32.9,29.61,WSW,248,4.8,9.2,80,0.00,,,0.00,WUHU216HW,2013-12-22 22:42:00,
2013-12-22 17:43:00,38.5,33.2,29.61,WSW,248,6.3,9.2,81,0.00,,,0.00,WUHU216HW,2013-12-22 22:43:00,
2013-12-22 17:44:00,38.5,33.2,29.61,WSW,243,4.9,9.2,81,0.00,,,0.00,WUHU216HW,2013-12-22 22:44:00,
2013-12-22 17:45:00,38.3,33.0,29.61,WSW,248,6.3,9.2,81,0.00,,,0.00,WUHU216HW,2013-12-22 22:45:00,
2013-12-22 17:47:00,38.3,32.8,29.61,SW,217,6.4,9.2,80,0.00,,,0.00,WUHU216HW,2013-12-22 22:47:00,
2013-12-22 17:48:00,38.3,32.8,29.61,SW,216,6.0,9.2,80,0.00,,,0.00,WUHU216HW,2013-12-22 22:48:00,
2013-12-22 17:49:00,38.3,32.8,29.61,WSW,247,4.3,8.5,80,0.00,,,0.00,WUHU216HW,2013-12-22 22:49:00,
2013-12-22 17:50:00,38.3,32.8,29.61,WSW,251,3.8,8.5,80,0.00,,,0.00,WUHU216HW,2013-12-22 22:50:00,
2013-12-22 17:52:00,38.3,32.8,29.61,WSW,246,6.7,8.7,80,0.00,,,0.00,WUHU216HW,2013-12-22 22:52:00,
2013-12-22 17:53:00,38.3,32.8,29.61,WSW,247,5.9,8.7,80,0.00,,,0.00,WUHU216HW,2013-12-22 22:53:00,
2013-12-22 17:54:00,38.3,32.8,29.61,WSW,241,5.8,8.7,80,0.00,,,0.00,WUHU216HW,2013-12-22 22:54:00,
2013-12-22 17:55:00,38.3,32.8,29.61,WSW,244,5.7,8.7,80,0.00,,,0.00,WUHU216HW,2013-12-22 22:55:00,
2013-12-22 17:57:00,38.3,32.8,29.61,WSW,242,5.1,8.7,80,0.00,,,0.00,WUHU216HW,2013-12-22 22:57:00,
2013-12-22 17:58:00,38.2,32.6,29.61,SW,236,4.0,8.7,80,0.00,,,0.00,WUHU216HW,2013-12-22 22:58:00,
2013-12-22 18:00:00,38.3,32.8,29.61,SW,225,4.9,8.7,80,0.00,,,0.00,WUHU216HW,2013-12-22 23:00:00,
2013-12-22 18:01:00,38.2,32.6,29.61,SW,225,9.2,9.2,80,0.00,,,0.00,WUHU216HW,2013-12-22 23:01:00,
2013-12-22 18:02:00,38.2,32.6,29.61,SW,225,7.2,9.2,80,0.00,,,0.00,WUHU216HW,2013-12-22 23:02:00,
2013-12-22 18:04:00,38.2,32.6,29.61,WSW,246,7.5,9.2,80,0.00,,,0.00,WUHU216HW,2013-12-22 23:04:00,
2013-12-22 18:05:00,38.2,32.6,29.62,WSW,241,7.2,9.2,80,0.00,,,0.00,WUHU216HW,2013-12-22 23:05:00,
2013-12-22 18:07:00,38.2,32.6,29.62,WSW,248,5.2,9.2,80,0.00,,,0.00,WUHU216HW,2013-12-22 23:07:00,
2013-12-22 18:08:00,38.2,32.6,29.62,SSW,203,4.5,9.2,80,0.00,,,0.00,WUHU216HW,2013-12-22 23:08:00,
2013-12-22 18:09:00,38.2,32.6,29.62,WSW,248,8.5,9.2,80,0.00,,,0.00,WUHU216HW,2013-12-22 23:09:00,
2013-12-22 18:10:00,38.2,32.6,29.62,WSW,248,7.4,9.2,80,0.00,,,0.00,WUHU216HW,2013-12-22 23:10:00,
2013-12-22 18:11:00,38.2,32.6,29.62,WSW,248,7.4,8.9,80,0.00,,,0.00,WUHU216HW,2013-12-22 23:11:00,
2013-12-22 18:12:00,38.2,32.6,29.62,WSW,252,7.3,8.9,80,0.00,,,0.00,WUHU216HW,2013-12-22 23:12:00,
2013-12-22 18:13:00,38.2,32.6,29.62,WSW,248,6.7,8.9,80,0.00,,,0.00,WUHU216HW,2013-12-22 23:13:00,
2013-12-22 18:14:00,38.2,32.6,29.62,SW,225,7.2,8.9,80,0.00,,,0.00,WUHU216HW,2013-12-22 23:14:00,
2013-12-22 18:15:00,38.0,32.4,29.61,WSW,248,6.3,8.9,80,0.00,,,0.00,WUHU216HW,2013-12-22 23:15:00,
2013-12-22 18:16:00,38.0,32.4,29.61,WSW,248,6.3,8.9,80,0.00,,,0.00,WUHU216HW,2013-12-22 23:16:00,
2013-12-22 18:17:00,38.2,32.6,29.61,WSW,238,4.8,8.9,80,0.00,,,0.00,WUHU216HW,2013-12-22 23:17:00,
2013-12-22 18:19:00,38.0,32.4,29.62,WSW,244,6.1,8.9,80,0.00,,,0.00,WUHU216HW,2013-12-22 23:19:00,
2013-12-22 18:20:00,38.0,32.7,29.62,West,270,6.0,8.9,81,0.00,,,0.00,WUHU216HW,2013-12-22 23:20:00,
2013-12-22 18:21:00,38.0,32.7,29.62,WSW,248,7.8,8.9,81,0.00,,,0.00,WUHU216HW,2013-12-22 23:21:00,
2013-12-22 18:22:00,38.0,32.7,29.62,WSW,238,4.9,8.7,81,0.00,,,0.00,WUHU216HW,2013-12-22 23:22:00,
2013-12-22 18:24:00,38.0,32.7,29.62,West,270,9.2,10.1,81,0.00,,,0.00,WUHU216HW,2013-12-22 23:24:00,
2013-12-22 18:25:00,38.0,32.7,29.62,WSW,251,7.2,10.1,81,0.00,,,0.00,WUHU216HW,2013-12-22 23:25:00,
2013-12-22 18:27:00,37.8,32.5,29.62,WSW,241,5.2,10.1,81,0.00,,,0.00,WUHU216HW,2013-12-22 23:27:00,
2013-12-22 18:28:00,37.8,32.5,29.62,SW,225,9.2,10.1,81,0.00,,,0.00,WUHU216HW,2013-12-22 23:28:00,
2013-12-22 18:29:00,38.0,32.7,29.62,SW,235,5.6,10.1,81,0.00,,,0.00,WUHU216HW,2013-12-22 23:29:00,
2013-12-22 18:30:00,37.8,32.8,29.62,WSW,238,5.5,10.1,82,0.00,,,0.00,WUHU216HW,2013-12-22 23:30:00,
2013-12-22 18:32:00,37.8,32.8,29.62,SW,225,8.1,10.1,82,0.00,,,0.00,WUHU216HW,2013-12-22 23:32:00,
2013-12-22 18:33:00,37.8,32.8,29.63,WSW,244,5.3,10.1,82,0.00,,,0.00,WUHU216HW,2013-12-22 23:33:00,
2013-12-22 18:34:00,37.8,32.8,29.63,WSW,253,5.1,9.8,82,0.00,,,0.00,WUHU216HW,2013-12-22 23:34:00,
2013-12-22 18:35:00,37.8,32.8,29.63,WSW,245,6.9,9.2,82,0.00,,,0.00,WUHU216HW,2013-12-22 23:35:00,
2013-12-22 18:37:00,37.8,32.8,29.63,WSW,248,5.8,9.2,82,0.00,,,0.00,WUHU216HW,2013-12-22 23:37:00,
2013-12-22 18:38:00,37.8,32.8,29.63,WSW,248,5.4,9.2,82,0.00,,,0.00,WUHU216HW,2013-12-22 23:38:00,
2013-12-22 18:39:00,37.8,32.8,29.63,WSW,245,4.7,8.7,82,0.00,,,0.00,WUHU216HW,2013-12-22 23:39:00,
2013-12-22 18:40:00,37.8,32.8,29.63,WSW,252,5.0,8.7,82,0.00,,,0.00,WUHU216HW,2013-12-22 23:40:00,
2013-12-22 18:41:00,37.8,32.8,29.63,WSW,252,5.0,8.7,82,0.00,,,0.00,WUHU216HW,2013-12-22 23:41:00,
2013-12-22 18:42:00,37.8,32.8,29.63,WSW,248,5.4,8.7,82,0.00,,,0.00,WUHU216HW,2013-12-22 23:42:00,
2013-12-22 18:43:00,37.8,32.8,29.63,West,264,4.6,8.7,82,0.00,,,0.00,WUHU216HW,2013-12-22 23:43:00,
2013-12-22 18:44:00,37.8,32.8,29.63,WSW,248,6.0,8.1,82,0.00,,,0.00,WUHU216HW,2013-12-22 23:44:00,
2013-12-22 18:46:00,37.8,32.8,29.63,WSW,248,7.8,7.8,82,0.00,,,0.00,WUHU216HW,2013-12-22 23:46:00,
2013-12-22 18:48:00,37.8,32.8,29.63,WSW,254,5.8,8.7,82,0.00,,,0.00,WUHU216HW,2013-12-22 23:48:00,
2013-12-22 18:49:00,37.8,32.8,29.63,WSW,251,6.7,8.7,82,0.00,,,0.00,WUHU216HW,2013-12-22 23:49:00,
2013-12-22 18:50:00,37.8,32.8,29.63,West,259,7.0,8.7,82,0.00,,,0.00,WUHU216HW,2013-12-22 23:50:00,
2013-12-22 18:51:00,37.8,32.8,29.63,WSW,254,6.6,8.7,82,0.00,,,0.00,WUHU216HW,2013-12-22 23:51:00,
2013-12-22 18:53:00,37.6,32.6,29.63,WSW,240,5.9,8.7,82,0.00,,,0.00,WUHU216HW,2013-12-22 23:53:00,
2013-12-22 18:54:00,37.6,32.6,29.63,SW,225,6.5,8.7,82,0.00,,,0.00,WUHU216HW,2013-12-22 23:54:00,
2013-12-22 18:55:00,37.6,32.6,29.64,SW,225,8.5,8.7,82,0.00,,,0.00,WUHU216HW,2013-12-22 23:55:00,
2013-12-22 18:56:00,37.6,32.6,29.64,WSW,246,6.4,8.7,82,0.00,,,0.00,WUHU216HW,2013-12-22 23:56:00,
2013-12-22 18:58:00,37.6,32.6,29.64,WSW,248,6.3,8.5,82,0.00,,,0.00,WUHU216HW,2013-12-22 23:58:00,
2013-12-22 18:59:00,37.6,33.0,29.64,WSW,258,6.1,8.5,83,0.00,,,0.00,WUHU216HW,2013-12-22 23:59:00,
2013-12-22 19:00:00,37.6,33.0,29.64,WSW,257,7.0,9.2,83,0.00,,,0.00,WUHU216HW,2013-12-23 00:00:00,
2013-12-22 19:01:00,37.6,33.0,29.64,WSW,248,6.6,9.2,83,0.00,,,0.00,WUHU216HW,2013-12-23 00:01:00,
2013-12-22 19:02:00,37.6,33.0,29.64,WSW,243,5.6,9.2,83,0.00,,,0.00,WUHU216HW,2013-12-23 00:02:00,
2013-12-22 19:03:00,37.6,33.0,29.64,SW,225,7.6,9.2,83,0.00,,,0.00,WUHU216HW,2013-12-23 00:03:00,
2013-12-22 19:05:00,37.6,33.0,29.64,WSW,241,5.8,9.2,83,0.00,,,0.00,WUHU216HW,2013-12-23 00:05:00,
2013-12-22 19:06:00,37.6,33.0,29.64,WSW,251,6.0,9.2,83,0.00,,,0.00,WUHU216HW,2013-12-23 00:06:00,
2013-12-22 19:07:00,37.6,33.0,29.64,WSW,242,4.3,9.2,83,0.00,,,0.00,WUHU216HW,2013-12-23 00:07:00,
2013-12-22 19:08:00,37.6,33.0,29.64,WSW,248,8.7,9.2,83,0.00,,,0.00,WUHU216HW,2013-12-23 00:08:00,
2013-12-22 19:10:00,37.6,33.0,29.64,WSW,253,6.2,9.2,83,0.00,,,0.00,WUHU216HW,2013-12-23 00:10:00,
2013-12-22 19:11:00,37.6,33.0,29.64,WSW,257,6.2,9.2,83,0.00,,,0.00,WUHU216HW,2013-12-23 00:11:00,
2013-12-22 19:13:00,37.4,32.8,29.64,WSW,254,6.0,9.2,83,0.00,,,0.00,WUHU216HW,2013-12-23 00:13:00,
2013-12-22 19:15:00,37.4,32.8,29.64,WSW,248,6.0,9.2,83,0.00,,,0.00,WUHU216HW,2013-12-23 00:15:00,
2013-12-22 19:16:00,37.6,33.0,29.64,WSW,253,6.0,9.2,83,0.00,,,0.00,WUHU216HW,2013-12-23 00:16:00,
2013-12-22 19:18:00,37.4,32.8,29.65,West,268,6.6,9.2,83,0.00,,,0.00,WUHU216HW,2013-12-23 00:18:00,
2013-12-22 19:20:00,37.4,32.8,29.65,SW,225,6.3,9.2,83,0.00,,,0.00,WUHU216HW,2013-12-23 00:20:00,
2013-12-22 19:21:00,37.4,32.8,29.65,West,270,6.0,9.2,83,0.00,,,0.00,WUHU216HW,2013-12-23 00:21:00,
2013-12-22 19:23:00,37.4,32.8,29.65,WSW,248,6.7,8.1,83,0.00,,,0.00,WUHU216HW,2013-12-23 00:23:00,
2013-12-22 19:25:00,37.4,32.8,29.65,WSW,244,3.5,8.1,83,0.00,,,0.00,WUHU216HW,2013-12-23 00:25:00,
2013-12-22 19:26:00,37.4,32.8,29.65,West,270,6.5,8.1,83,0.00,,,0.00,WUHU216HW,2013-12-23 00:26:00,
2013-12-22 19:29:00,37.4,32.8,29.65,WSW,244,5.2,6.7,83,0.00,,,0.00,WUHU216HW,2013-12-23 00:29:00,
2013-12-22 19:31:00,37.4,32.8,29.65,WSW,248,4.7,6.7,83,0.00,,,0.00,WUHU216HW,2013-12-23 00:31:00,
2013-12-22 19:32:00,37.4,32.8,29.65,WSW,246,4.4,6.7,83,0.00,,,0.00,WUHU216HW,2013-12-23 00:32:00,
2013-12-22 19:34:00,37.4,32.8,29.65,WSW,248,3.8,6.7,83,0.00,,,0.00,WUHU216HW,2013-12-23 00:34:00,
2013-12-22 19:35:00,37.4,33.0,29.65,WSW,252,4.2,6.7,84,0.00,,,0.00,WUHU216HW,2013-12-23 00:35:00,
2013-12-22 19:36:00,37.4,33.0,29.65,West,270,7.4,7.6,84,0.00,,,0.00,WUHU216HW,2013-12-23 00:36:00,
2013-12-22 19:37:00,37.4,33.0,29.65,SW,225,6.3,7.6,84,0.00,,,0.00,WUHU216HW,2013-12-23 00:37:00,
2013-12-22 19:40:00,37.4,33.0,29.65,West,270,4.9,7.6,84,0.00,,,0.00,WUHU216HW,2013-12-23 00:40:00,
2013-12-22 19:41:00,37.4,33.0,29.65,WSW,244,4.3,7.6,84,0.00,,,0.00,WUHU216HW,2013-12-23 00:41:00,
2013-12-22 19:42:00,37.4,33.0,29.65,West,270,7.8,7.8,84,0.00,,,0.00,WUHU216HW,2013-12-23 00:42:00,
2013-12-22 19:43:00,37.4,33.0,29.65,WSW,246,8.5,10.5,84,0.00,,,0.00,WUHU216HW,2013-12-23 00:43:00,
2013-12-22 19:45:00,37.4,33.0,29.65,WSW,248,5.1,10.5,84,0.00,,,0.00,WUHU216HW,2013-12-23 00:45:00,
2013-12-22 19:47:00,37.4,33.0,29.65,WSW,250,4.2,10.5,84,0.00,,,0.00,WUHU216HW,2013-12-23 00:47:00,
2013-12-22 19:48:00,37.4,33.0,29.65,West,270,6.0,10.5,84,0.00,,,0.00,WUHU216HW,2013-12-23 00:48:00,
2013-12-22 19:50:00,37.4,33.0,29.65,West,263,4.9,10.5,84,0.00,,,0.00,WUHU216HW,2013-12-23 00:50:00,
2013-12-22 19:52:00,37.4,33.0,29.65,WSW,257,4.8,10.5,84,0.00,,,0.00,WUHU216HW,2013-12-23 00:52:00,
2013-12-22 19:53:00,37.4,33.0,29.65,WSW,258,5.6,7.4,84,0.00,,,0.00,WUHU216HW,2013-12-23 00:53:00,
2013-12-22 19:54:00,37.3,32.9,29.66,WSW,245,6.2,8.9,84,0.00,,,0.00,WUHU216HW,2013-12-23 00:54:00,
2013-12-22 19:55:00,37.3,32.9,29.65,WSW,247,4.9,8.9,84,0.00,,,0.00,WUHU216HW,2013-12-23 00:55:00,
2013-12-22 19:57:00,37.3,32.9,29.66,WSW,241,3.5,8.9,84,0.00,,,0.00,WUHU216HW,2013-12-23 00:57:00,
2013-12-22 19:58:00,37.3,32.9,29.66,SW,225,4.7,8.9,84,0.00,,,0.00,WUHU216HW,2013-12-23 00:58:00,
2013-12-22 19:59:00,37.3,32.9,29.66,SW,229,4.0,8.9,84,0.00,,,0.00,WUHU216HW,2013-12-23 00:59:00,
2013-12-22 20:00:00,37.3,32.9,29.66,WSW,244,5.0,8.9,84,0.00,,,0.00,WUHU216HW,2013-12-23 01:00:00,
2013-12-22 20:03:00,37.3,32.9,29.66,WSW,247,4.5,8.9,84,0.00,,,0.00,WUHU216HW,2013-12-23 01:03:00,
2013-12-22 20:04:00,37.3,32.9,29.66,WSW,248,4.0,7.2,84,0.00,,,0.00,WUHU216HW,2013-12-23 01:04:00,
2013-12-22 20:06:00,37.3,32.9,29.66,WSW,250,5.2,7.2,84,0.00,,,0.00,WUHU216HW,2013-12-23 01:06:00,
2013-12-22 20:08:00,37.1,32.7,29.65,SSW,203,4.7,7.2,84,0.00,,,0.00,WUHU216HW,2013-12-23 01:08:00,
2013-12-22 20:09:00,37.3,32.9,29.65,WSW,247,5.1,7.2,84,0.00,,,0.00,WUHU216HW,2013-12-23 01:09:00,
2013-12-22 20:11:00,37.1,32.7,29.65,West,270,6.3,7.2,84,0.00,,,0.00,WUHU216HW,2013-12-23 01:11:00,
2013-12-22 20:13:00,37.1,32.7,29.65,West,276,5.2,8.3,84,0.00,,,0.00,WUHU216HW,2013-12-23 01:13:00,
2013-12-22 20:14:00,37.1,32.7,29.65,West,272,3.6,8.3,84,0.00,,,0.00,WUHU216HW,2013-12-23 01:14:00,
2013-12-22 20:15:00,37.1,32.7,29.65,WNW,293,3.4,8.3,84,0.00,,,0.00,WUHU216HW,2013-12-23 01:15:00,
2013-12-22 20:16:00,37.1,32.7,29.65,West,273,3.3,8.3,84,0.00,,,0.00,WUHU216HW,2013-12-23 01:16:00,
2013-12-22 20:18:00,37.1,32.7,29.64,NW,315,3.1,8.3,84,0.00,,,0.00,WUHU216HW,2013-12-23 01:18:00,
2013-12-22 20:19:00,37.1,32.7,29.64,NNW,338,4.5,8.3,84,0.00,,,0.00,WUHU216HW,2013-12-23 01:19:00,
2013-12-22 20:20:00,37.1,32.7,29.64,NW,320,3.4,8.3,84,0.00,,,0.00,WUHU216HW,2013-12-23 01:20:00,
2013-12-22 20:21:00,37.1,32.7,29.65,West,266,3.3,8.3,84,0.00,,,0.00,WUHU216HW,2013-12-23 01:21:00,
2013-12-22 20:24:00,37.1,32.7,29.65,WSW,258,4.6,5.6,84,0.00,,,0.00,WUHU216HW,2013-12-23 01:24:00,
2013-12-22 20:25:00,37.1,32.7,29.65,West,270,3.8,5.6,84,0.00,,,0.00,WUHU216HW,2013-12-23 01:25:00,
2013-12-22 20:26:00,37.1,32.7,29.65,WSW,256,3.5,5.6,84,0.00,,,0.00,WUHU216HW,2013-12-23 01:26:00,
2013-12-22 20:29:00,37.1,32.7,29.66,West,270,3.6,5.6,84,0.00,,,0.00,WUHU216HW,2013-12-23 01:29:00,
2013-12-22 20:30:00,37.1,32.7,29.66,WSW,253,3.1,5.6,84,0.00,,,0.00,WUHU216HW,2013-12-23 01:30:00,
2013-12-22 20:31:00,37.1,32.7,29.66,WSW,248,4.3,5.6,84,0.00,,,0.00,WUHU216HW,2013-12-23 01:31:00,
2013-12-22 20:32:00,37.1,32.7,29.66,SW,225,4.0,5.6,84,0.00,,,0.00,WUHU216HW,2013-12-23 01:32:00,
2013-12-22 20:34:00,36.9,32.5,29.66,WSW,248,4.0,5.6,84,0.00,,,0.00,WUHU216HW,2013-12-23 01:34:00,
2013-12-22 20:35:00,36.9,32.5,29.66,WSW,248,6.0,6.0,84,0.00,,,0.00,WUHU216HW,2013-12-23 01:35:00,
2013-12-22 20:36:00,37.1,32.7,29.66,WSW,251,4.7,6.0,84,0.00,,,0.00,WUHU216HW,2013-12-23 01:36:00,
2013-12-22 20:37:00,37.1,32.7,29.66,WSW,254,4.8,6.0,84,0.00,,,0.00,WUHU216HW,2013-12-23 01:37:00,
2013-12-22 20:39:00,37.1,32.7,29.66,WSW,248,3.4,6.0,84,0.00,,,0.00,WUHU216HW,2013-12-23 01:39:00,
2013-12-22 20:40:00,36.9,32.5,29.66,WSW,245,2.7,6.0,84,0.00,,,0.00,WUHU216HW,2013-12-23 01:40:00,
2013-12-22 20:41:00,36.9,32.5,29.66,WSW,248,2.5,6.0,84,0.00,,,0.00,WUHU216HW,2013-12-23 01:41:00,
2013-12-22 20:42:00,37.1,32.7,29.66,WSW,248,2.5,6.0,84,0.00,,,0.00,WUHU216HW,2013-12-23 01:42:00,
2013-12-22 20:44:00,36.9,32.5,29.66,SW,225,2.9,6.0,84,0.00,,,0.00,WUHU216HW,2013-12-23 01:44:00,
2013-12-22 20:45:00,36.9,32.5,29.66,SW,217,2.7,6.0,84,0.00,,,0.00,WUHU216HW,2013-12-23 01:45:00,
2013-12-22 20:46:00,36.9,32.8,29.66,WSW,237,3.3,5.1,85,0.00,,,0.00,WUHU216HW,2013-12-23 01:46:00,
2013-12-22 20:47:00,36.9,32.8,29.66,SW,236,3.3,5.1,85,0.00,,,0.00,WUHU216HW,2013-12-23 01:47:00,
2013-12-22 20:49:00,36.9,32.8,29.66,SW,234,3.3,5.1,85,0.00,,,0.00,WUHU216HW,2013-12-23 01:49:00,
2013-12-22 20:50:00,36.9,32.8,29.66,SW,235,3.0,5.1,85,0.00,,,0.00,WUHU216HW,2013-12-23 01:50:00,
2013-12-22 20:51:00,36.9,32.8,29.66,SSW,203,2.7,5.1,85,0.00,,,0.00,WUHU216HW,2013-12-23 01:51:00,
2013-12-22 20:52:00,36.9,32.8,29.66,SSW,203,2.7,5.1,85,0.00,,,0.00,WUHU216HW,2013-12-23 01:52:00,
2013-12-22 20:54:00,36.9,32.8,29.66,West,270,4.9,6.5,85,0.00,,,0.00,WUHU216HW,2013-12-23 01:54:00,
2013-12-22 20:55:00,36.7,32.6,29.66,SW,225,4.5,6.5,85,0.00,,,0.00,WUHU216HW,2013-12-23 01:55:00,
2013-12-22 20:57:00,36.9,32.8,29.66,SW,230,2.7,6.5,85,0.00,,,0.00,WUHU216HW,2013-12-23 01:57:00,
2013-12-22 20:59:00,36.7,32.6,29.66,West,270,3.6,6.5,85,0.00,,,0.00,WUHU216HW,2013-12-23 01:59:00,
2013-12-22 21:00:00,36.7,32.6,29.66,SW,225,4.9,6.5,85,0.00,,,0.00,WUHU216HW,2013-12-23 02:00:00,
2013-12-22 21:02:00,36.7,32.6,29.66,SW,219,3.7,6.5,85,0.00,,,0.00,WUHU216HW,2013-12-23 02:02:00,
2013-12-22 21:05:00,36.7,32.6,29.66,SW,225,3.8,5.1,85,0.00,,,0.00,WUHU216HW,2013-12-23 02:05:00,
2013-12-22 21:06:00,36.7,32.6,29.66,SSW,203,3.4,5.1,85,0.00,,,0.00,WUHU216HW,2013-12-23 02:06:00,
2013-12-22 21:07:00,36.7,32.6,29.66,SSW,208,2.8,5.1,85,0.00,,,0.00,WUHU216HW,2013-12-23 02:07:00,
2013-12-22 21:08:00,36.7,32.6,29.66,SSW,203,6.0,6.0,85,0.00,,,0.00,WUHU216HW,2013-12-23 02:08:00,
2013-12-22 21:10:00,36.7,32.6,29.66,WSW,248,3.4,6.3,85,0.00,,,0.00,WUHU216HW,2013-12-23 02:10:00,
2013-12-22 21:11:00,36.7,32.6,29.66,SW,225,3.6,6.3,85,0.00,,,0.00,WUHU216HW,2013-12-23 02:11:00,
2013-12-22 21:12:00,36.7,32.6,29.66,WSW,248,3.4,6.3,85,0.00,,,0.00,WUHU216HW,2013-12-23 02:12:00,
2013-12-22 21:13:00,36.7,32.6,29.66,WSW,242,3.3,6.3,85,0.00,,,0.00,WUHU216HW,2013-12-23 02:13:00,
2013-12-22 21:15:00,36.7,32.6,29.66,SW,225,5.4,6.3,85,0.00,,,0.00,WUHU216HW,2013-12-23 02:15:00,
2013-12-22 21:16:00,36.7,32.6,29.66,SW,233,3.4,6.3,85,0.00,,,0.00,WUHU216HW,2013-12-23 02:16:00,
2013-12-22 21:17:00,36.7,32.6,29.66,WSW,248,3.1,6.3,85,0.00,,,0.00,WUHU216HW,2013-12-23 02:17:00,
2013-12-22 21:18:00,36.7,32.6,29.66,WSW,248,3.1,6.3,85,0.00,,,0.00,WUHU216HW,2013-12-23 02:18:00,
2013-12-22 21:20:00,36.7,32.6,29.66,West,267,4.9,6.3,85,0.00,,,0.00,WUHU216HW,2013-12-23 02:20:00,
2013-12-22 21:22:00,36.5,32.4,29.66,West,262,3.1,6.3,85,0.00,,,0.00,WUHU216HW,2013-12-23 02:22:00,
2013-12-22 21:23:00,36.5,32.4,29.66,WSW,248,2.9,6.3,85,0.00,,,0.00,WUHU216HW,2013-12-23 02:23:00,
2013-12-22 21:26:00,36.5,32.4,29.66,WSW,245,3.5,6.3,85,0.00,,,0.00,WUHU216HW,2013-12-23 02:26:00,
2013-12-22 21:27:00,36.5,32.4,29.66,West,270,3.6,6.3,85,0.00,,,0.00,WUHU216HW,2013-12-23 02:27:00,
2013-12-22 21:28:00,36.5,32.4,29.66,SW,225,5.1,7.8,85,0.00,,,0.00,WUHU216HW,2013-12-23 02:28:00,
2013-12-22 21:31:00,36.5,32.4,29.66,WSW,251,4.1,7.8,85,0.00,,,0.00,WUHU216HW,2013-12-23 02:31:00,
2013-12-22 21:32:00,36.5,32.4,29.66,WSW,241,3.6,7.8,85,0.00,,,0.00,WUHU216HW,2013-12-23 02:32:00,
2013-12-22 21:33:00,36.5,32.4,29.66,West,270,4.0,7.8,85,0.00,,,0.00,WUHU216HW,2013-12-23 02:33:00,
2013-12-22 21:36:00,36.5,32.4,29.66,SW,225,5.6,7.8,85,0.00,,,0.00,WUHU216HW,2013-12-23 02:36:00,
2013-12-22 21:37:00,36.5,32.4,29.66,WSW,246,3.9,7.8,85,0.00,,,0.00,WUHU216HW,2013-12-23 02:37:00,
2013-12-22 21:38:00,36.5,32.4,29.66,WSW,248,6.7,6.7,85,0.00,,,0.00,WUHU216HW,2013-12-23 02:38:00,
2013-12-22 21:39:00,36.5,32.4,29.66,WSW,248,4.9,6.7,85,0.00,,,0.00,WUHU216HW,2013-12-23 02:39:00,
2013-12-22 21:41:00,36.5,32.4,29.66,WSW,243,3.4,6.7,85,0.00,,,0.00,WUHU216HW,2013-12-23 02:41:00,
2013-12-22 21:42:00,36.5,32.4,29.66,WSW,241,2.7,6.7,85,0.00,,,0.00,WUHU216HW,2013-12-23 02:42:00,
2013-12-22 21:43:00,36.5,32.4,29.66,WSW,248,5.6,6.7,85,0.00,,,0.00,WUHU216HW,2013-12-23 02:43:00,
2013-12-22 21:44:00,36.5,32.4,29.66,WSW,248,5.6,6.7,85,0.00,,,0.00,WUHU216HW,2013-12-23 02:44:00,
2013-12-22 21:47:00,36.5,32.4,29.66,West,270,4.7,6.7,85,0.00,,,0.00,WUHU216HW,2013-12-23 02:47:00,
2013-12-22 21:48:00,36.4,32.2,29.66,West,270,4.7,6.7,85,0.00,,,0.00,WUHU216HW,2013-12-23 02:48:00,
2013-12-22 21:49:00,36.4,32.2,29.66,West,270,4.3,5.6,85,0.00,,,0.00,WUHU216HW,2013-12-23 02:49:00,
2013-12-22 21:52:00,36.4,32.2,29.67,West,270,4.7,6.3,85,0.00,,,0.00,WUHU216HW,2013-12-23 02:52:00,
2013-12-22 21:53:00,36.4,32.2,29.67,WSW,257,4.0,6.3,85,0.00,,,0.00,WUHU216HW,2013-12-23 02:53:00,
2013-12-22 21:54:00,36.4,32.2,29.67,WSW,251,3.8,6.3,85,0.00,,,0.00,WUHU216HW,2013-12-23 02:54:00,
2013-12-22 21:58:00,36.4,32.2,29.67,WSW,248,4.7,6.9,85,0.00,,,0.00,WUHU216HW,2013-12-23 02:58:00,
2013-12-22 21:59:00,36.4,32.2,29.67,West,270,4.5,6.9,85,0.00,,,0.00,WUHU216HW,2013-12-23 02:59:00,
2013-12-22 22:00:00,36.4,32.2,29.67,WSW,248,6.0,7.6,85,0.00,,,0.00,WUHU216HW,2013-12-23 03:00:00,
2013-12-22 22:03:00,36.4,32.2,29.68,WSW,248,5.1,7.6,85,0.00,,,0.00,WUHU216HW,2013-12-23 03:03:00,
2013-12-22 22:04:00,36.4,32.2,29.68,WSW,243,4.0,7.6,85,0.00,,,0.00,WUHU216HW,2013-12-23 03:04:00,
2013-12-22 22:06:00,36.4,32.2,29.68,West,270,4.5,7.6,85,0.00,,,0.00,WUHU216HW,2013-12-23 03:06:00,
2013-12-22 22:08:00,36.4,32.2,29.68,SW,235,3.2,7.6,85,0.00,,,0.00,WUHU216HW,2013-12-23 03:08:00,
2013-12-22 22:09:00,36.4,32.2,29.68,SW,225,2.9,7.6,85,0.00,,,0.00,WUHU216HW,2013-12-23 03:09:00,
2013-12-22 22:10:00,36.4,32.2,29.68,SSW,203,4.9,6.3,85,0.00,,,0.00,WUHU216HW,2013-12-23 03:10:00,
2013-12-22 22:11:00,36.4,32.2,29.68,WSW,248,6.0,6.3,85,0.00,,,0.00,WUHU216HW,2013-12-23 03:11:00,
2013-12-22 22:14:00,36.4,32.2,29.68,WSW,244,3.7,6.3,85,0.00,,,0.00,WUHU216HW,2013-12-23 03:14:00,
2013-12-22 22:15:00,36.2,32.0,29.68,WSW,248,2.9,6.3,85,0.00,,,0.00,WUHU216HW,2013-12-23 03:15:00,
2013-12-22 22:16:00,36.2,32.0,29.68,SW,225,2.5,6.0,85,0.00,,,0.00,WUHU216HW,2013-12-23 03:16:00,
2013-12-22 22:19:00,36.2,32.3,29.68,WSW,252,4.8,8.3,86,0.00,,,0.00,WUHU216HW,2013-12-23 03:19:00,
2013-12-22 22:20:00,36.2,32.0,29.68,SW,225,4.9,8.3,85,0.00,,,0.00,WUHU216HW,2013-12-23 03:20:00,
2013-12-22 22:21:00,36.2,32.3,29.68,WSW,248,4.0,8.3,86,0.00,,,0.00,WUHU216HW,2013-12-23 03:21:00,
2013-12-22 22:22:00,36.2,32.3,29.68,SW,234,2.9,8.3,86,0.00,,,0.00,WUHU216HW,2013-12-23 03:22:00,
2013-12-22 22:24:00,36.2,32.3,29.68,WSW,248,3.4,8.3,86,0.00,,,0.00,WUHU216HW,2013-12-23 03:24:00,
2013-12-22 22:25:00,36.2,32.3,29.68,WSW,241,3.7,8.3,86,0.00,,,0.00,WUHU216HW,2013-12-23 03:25:00,
2013-12-22 22:27:00,36.2,32.3,29.68,SW,224,4.3,8.3,86,0.00,,,0.00,WUHU216HW,2013-12-23 03:27:00,
2013-12-22 22:28:00,36.2,32.3,29.68,SW,224,4.3,6.9,86,0.00,,,0.00,WUHU216HW,2013-12-23 03:28:00,
2013-12-22 22:29:00,36.2,32.3,29.68,SW,225,2.7,6.9,86,0.00,,,0.00,WUHU216HW,2013-12-23 03:29:00,
2013-12-22 22:30:00,36.2,32.3,29.68,WSW,248,2.7,6.9,86,0.00,,,0.00,WUHU216HW,2013-12-23 03:30:00,
2013-12-22 22:33:00,36.2,32.3,29.68,SW,225,3.8,6.9,86,0.00,,,0.00,WUHU216HW,2013-12-23 03:33:00,
2013-12-22 22:34:00,36.2,32.3,29.68,WSW,239,3.7,6.9,86,0.00,,,0.00,WUHU216HW,2013-12-23 03:34:00,
2013-12-22 22:35:00,36.0,32.1,29.68,SW,233,3.0,6.9,86,0.00,,,0.00,WUHU216HW,2013-12-23 03:35:00,
2013-12-22 22:38:00,36.0,32.1,29.68,WSW,248,3.4,5.4,86,0.00,,,0.00,WUHU216HW,2013-12-23 03:38:00,
2013-12-22 22:40:00,36.0,32.1,29.69,WSW,248,4.0,5.4,86,0.00,,,0.00,WUHU216HW,2013-12-23 03:40:00,
2013-12-22 22:43:00,36.0,32.1,29.69,WSW,248,5.4,5.4,86,0.00,,,0.00,WUHU216HW,2013-12-23 03:43:00,
2013-12-22 22:44:00,36.0,32.1,29.69,WSW,244,4.1,5.4,86,0.00,,,0.00,WUHU216HW,2013-12-23 03:44:00,
2013-12-22 22:45:00,36.0,32.1,29.68,West,260,3.9,5.4,86,0.00,,,0.00,WUHU216HW,2013-12-23 03:45:00,
2013-12-22 22:46:00,36.0,32.1,29.68,West,259,4.1,5.4,86,0.00,,,0.00,WUHU216HW,2013-12-23 03:46:00,
2013-12-22 22:48:00,36.0,32.1,29.69,WSW,248,3.6,5.4,86,0.00,,,0.00,WUHU216HW,2013-12-23 03:48:00,
2013-12-22 22:49:00,36.0,32.1,29.68,WSW,249,4.0,5.4,86,0.00,,,0.00,WUHU216HW,2013-12-23 03:49:00,
2013-12-22 22:50:00,36.0,32.1,29.69,WSW,245,4.3,5.4,86,0.00,,,0.00,WUHU216HW,2013-12-23 03:50:00,
2013-12-22 22:51:00,36.0,32.1,29.69,WSW,246,3.8,5.4,86,0.00,,,0.00,WUHU216HW,2013-12-23 03:51:00,
2013-12-22 22:52:00,36.0,32.1,29.69,WSW,248,3.8,5.4,86,0.00,,,0.00,WUHU216HW,2013-12-23 03:52:00,
2013-12-22 22:54:00,36.0,32.1,29.68,WSW,248,5.4,6.7,86,0.00,,,0.00,WUHU216HW,2013-12-23 03:54:00,
2013-12-22 22:55:00,36.0,32.1,29.68,West,272,4.2,6.7,86,0.00,,,0.00,WUHU216HW,2013-12-23 03:55:00,
2013-12-22 22:56:00,36.0,32.1,29.68,WSW,248,3.8,6.7,86,0.00,,,0.00,WUHU216HW,2013-12-23 03:56:00,
2013-12-22 22:57:00,36.0,32.1,29.68,West,270,3.1,6.7,86,0.00,,,0.00,WUHU216HW,2013-12-23 03:57:00,
2013-12-22 22:59:00,36.0,32.1,29.68,West,270,3.1,6.7,86,0.00,,,0.00,WUHU216HW,2013-12-23 03:59:00,
2013-12-22 23:00:00,35.8,32.0,29.68,WNW,293,4.7,6.7,86,0.00,,,0.00,WUHU216HW,2013-12-23 04:00:00,
2013-12-22 23:01:00,35.8,32.0,29.68,WSW,248,3.6,6.7,86,0.00,,,0.00,WUHU216HW,2013-12-23 04:01:00,
2013-12-22 23:02:00,35.8,32.0,29.68,WSW,253,3.2,6.7,86,0.00,,,0.00,WUHU216HW,2013-12-23 04:02:00,
2013-12-22 23:04:00,35.8,32.0,29.68,WSW,248,2.7,4.7,86,0.00,,,0.00,WUHU216HW,2013-12-23 04:04:00,
2013-12-22 23:05:00,35.8,32.0,29.68,West,270,3.1,4.7,86,0.00,,,0.00,WUHU216HW,2013-12-23 04:05:00,
2013-12-22 23:06:00,35.8,32.0,29.68,West,270,3.1,4.7,86,0.00,,,0.00,WUHU216HW,2013-12-23 04:06:00,
2013-12-22 23:07:00,35.8,32.0,29.68,West,270,4.0,5.6,86,0.00,,,0.00,WUHU216HW,2013-12-23 04:07:00,
2013-12-22 23:09:00,35.8,32.0,29.68,West,261,3.7,5.6,86,0.00,,,0.00,WUHU216HW,2013-12-23 04:09:00,
2013-12-22 23:11:00,35.8,32.0,29.68,WSW,248,4.7,5.6,86,0.00,,,0.00,WUHU216HW,2013-12-23 04:11:00,
2013-12-22 23:12:00,35.8,32.0,29.68,West,270,4.0,5.6,86,0.00,,,0.00,WUHU216HW,2013-12-23 04:12:00,
2013-12-22 23:15:00,35.8,32.0,29.69,SW,225,3.6,5.6,86,0.00,,,0.00,WUHU216HW,2013-12-23 04:15:00,
2013-12-22 23:16:00,35.8,32.0,29.69,SW,225,3.4,5.6,86,0.00,,,0.00,WUHU216HW,2013-12-23 04:16:00,
2013-12-22 23:17:00,35.8,32.0,29.69,WSW,240,3.6,4.7,86,0.00,,,0.00,WUHU216HW,2013-12-23 04:17:00,
2013-12-22 23:18:00,35.8,32.0,29.69,WSW,241,3.5,4.7,86,0.00,,,0.00,WUHU216HW,2013-12-23 04:18:00,
2013-12-22 23:20:00,35.8,32.0,29.69,WSW,247,3.1,4.7,86,0.00,,,0.00,WUHU216HW,2013-12-23 04:20:00,
2013-12-22 23:21:00,35.8,32.0,29.69,SW,225,4.5,4.7,86,0.00,,,0.00,WUHU216HW,2013-12-23 04:21:00,
2013-12-22 23:22:00,35.8,32.0,29.69,WSW,238,3.3,4.7,86,0.00,,,0.00,WUHU216HW,2013-12-23 04:22:00,
2013-12-22 23:23:00,35.6,31.5,29.69,WSW,248,4.7,4.7,85,0.00,,,0.00,WUHU216HW,2013-12-23 04:23:00,
2013-12-22 23:26:00,35.6,31.5,29.69,WSW,256,5.5,5.8,85,0.00,,,0.00,WUHU216HW,2013-12-23 04:26:00,
2013-12-22 23:27:00,35.6,31.5,29.69,WSW,250,4.9,5.8,85,0.00,,,0.00,WUHU216HW,2013-12-23 04:27:00,
2013-12-22 23:28:00,35.6,31.5,29.69,WSW,248,6.9,6.9,85,0.00,,,0.00,WUHU216HW,2013-12-23 04:28:00,
2013-12-22 23:31:00,35.6,31.5,29.69,SW,225,4.0,6.9,85,0.00,,,0.00,WUHU216HW,2013-12-23 04:31:00,
2013-12-22 23:32:00,35.6,31.5,29.69,WSW,245,3.3,6.9,85,0.00,,,0.00,WUHU216HW,2013-12-23 04:32:00,
2013-12-22 23:33:00,35.6,31.5,29.69,WSW,244,3.7,6.9,85,0.00,,,0.00,WUHU216HW,2013-12-23 04:33:00,
2013-12-22 23:36:00,35.6,31.5,29.69,West,270,5.4,6.9,85,0.00,,,0.00,WUHU216HW,2013-12-23 04:36:00,
2013-12-22 23:37:00,35.6,31.5,29.70,WSW,248,6.5,6.9,85,0.00,,,0.00,WUHU216HW,2013-12-23 04:37:00,
2013-12-22 23:38:00,35.6,31.5,29.70,WSW,257,5.3,6.9,85,0.00,,,0.00,WUHU216HW,2013-12-23 04:38:00,
2013-12-22 23:41:00,35.6,31.5,29.70,WSW,254,3.9,6.9,85,0.00,,,0.00,WUHU216HW,2013-12-23 04:41:00,
2013-12-22 23:43:00,35.6,31.5,29.70,WSW,255,3.9,6.7,85,0.00,,,0.00,WUHU216HW,2013-12-23 04:43:00,
2013-12-22 23:44:00,35.6,31.5,29.70,SW,225,4.0,6.7,85,0.00,,,0.00,WUHU216HW,2013-12-23 04:44:00,
2013-12-22 23:47:00,35.6,31.5,29.70,WSW,239,3.8,6.7,85,0.00,,,0.00,WUHU216HW,2013-12-23 04:47:00,
2013-12-22 23:48:00,35.6,31.5,29.70,WSW,248,4.7,5.4,85,0.00,,,0.00,WUHU216HW,2013-12-23 04:48:00,
2013-12-22 23:49:00,35.6,31.5,29.70,West,270,4.9,7.4,85,0.00,,,0.00,WUHU216HW,2013-12-23 04:49:00,
2013-12-22 23:52:00,35.6,31.5,29.70,WSW,240,4.6,7.4,85,0.00,,,0.00,WUHU216HW,2013-12-23 04:52:00,
2013-12-22 23:53:00,35.6,31.5,29.70,WSW,248,3.8,7.4,85,0.00,,,0.00,WUHU216HW,2013-12-23 04:53:00,
2013-12-22 23:54:00,35.6,31.5,29.70,SW,233,3.7,7.4,85,0.00,,,0.00,WUHU216HW,2013-12-23 04:54:00,
2013-12-22 23:57:00,35.6,31.5,29.70,WSW,245,5.0,7.4,85,0.00,,,0.00,WUHU216HW,2013-12-23 04:57:00,
2013-12-22 23:58:00,35.6,31.5,29.70,WSW,245,4.5,7.4,85,0.00,,,0.00,WUHU216HW,2013-12-23 04:58:00,
2013-12-22 23:59:00,35.6,31.5,29.70,WSW,253,4.5,6.5,85,0.00,,,0.00,WUHU216HW,2013-12-23 04:59:00,